Wetterdaten: Mittwoch, 25.11.2020
Datum Zeit Temp. Aussen Temp. o. S. Temp +5cm Feuchte Auss Luftdruck Regen Sonnenschein Regendauer Solar Windben Empfang
25.11.2020 00:00 5,2 C 4,4 C 3,9 C 94 % 1019,2 hPa 0,0 l/m 0 min 0 min 0 W/m 9,7 km/h (2 Bft) 100,00 %
25.11.2020 00:02 5,2 C 4,4 C 3,9 C 94 % 1019,1 hPa 0,0 l/m 0 min 0 min 0 W/m 3,2 km/h (1 Bft) 12,50 %
25.11.2020 00:04 5,2 C 4,4 C 3,9 C 94 % 1019,1 hPa 0,0 l/m 0 min 0 min 0 W/m 19,3 km/h (3 Bft) 84,21 %
25.11.2020 00:07 5,2 C 4,4 C 3,9 C 94 % 1019,1 hPa 0,0 l/m 0 min 0 min 0 W/m 12,9 km/h (3 Bft) 100,00 %
25.11.2020 00:08 5,2 C 4,4 C 3,9 C 94 % 1019,1 hPa 0,0 l/m 0 min 0 min 0 W/m 3,2 km/h (1 Bft) 95,65 %
25.11.2020 00:10 5,2 C 4,4 C 3,9 C 94 % 1019,1 hPa 0,0 l/m 0 min 0 min 0 W/m 16,1 km/h (3 Bft) 100,00 %
25.11.2020 00:12 5,2 C 4,4 C 3,9 C 94 % 1019,1 hPa 0,0 l/m 0 min 0 min 0 W/m 12,9 km/h (3 Bft) 97,87 %
25.11.2020 00:14 5,2 C 4,4 C 3,9 C 94 % 1019,1 hPa 0,0 l/m 0 min 0 min 0 W/m 6,4 km/h (2 Bft) 97,87 %
25.11.2020 00:16 5,2 C 4,4 C 3,9 C 94 % 1019,1 hPa 0,0 l/m 0 min 0 min 0 W/m 12,9 km/h (3 Bft) 97,87 %
25.11.2020 00:18 5,1 C 4,4 C 3,9 C 94 % 1019,1 hPa 0,0 l/m 0 min 0 min 0 W/m 12,9 km/h (3 Bft) 97,83 %
25.11.2020 00:20 5,1 C 4,4 C 3,9 C 94 % 1019,1 hPa 0,0 l/m 0 min 0 min 0 W/m 12,9 km/h (3 Bft) 97,83 %
25.11.2020 00:22 5,1 C 4,4 C 3,9 C 94 % 1019,0 hPa 0,0 l/m 0 min 0 min 0 W/m 12,9 km/h (3 Bft) 93,62 %
25.11.2020 00:24 5,1 C 4,4 C 3,9 C 94 % 1019,0 hPa 0,0 l/m 0 min 0 min 0 W/m 12,9 km/h (3 Bft) 97,87 %
25.11.2020 00:26 5,1 C 4,4 C 3,9 C 94 % 1018,9 hPa 0,0 l/m 0 min 0 min 0 W/m 12,9 km/h (3 Bft) 97,87 %
25.11.2020 00:28 5,1 C 4,4 C 3,9 C 94 % 1018,9 hPa 0,0 l/m 0 min 0 min 0 W/m 12,9 km/h (3 Bft) 97,83 %
25.11.2020 00:30 5,1 C 4,4 C 3,9 C 94 % 1018,9 hPa 0,0 l/m 0 min 0 min 0 W/m 12,9 km/h (3 Bft) 97,87 %
25.11.2020 00:32 5,1 C 4,4 C 3,9 C 94 % 1018,9 hPa 0,0 l/m 0 min 0 min 0 W/m 12,9 km/h (3 Bft) 97,92 %
25.11.2020 00:34 5,1 C 4,4 C 3,9 C 94 % 1018,9 hPa 0,0 l/m 0 min 0 min 0 W/m 16,1 km/h (3 Bft) 97,87 %
25.11.2020 00:36 5,1 C 4,4 C 3,9 C 94 % 1018,8 hPa 0,0 l/m 0 min 0 min 0 W/m 3,2 km/h (1 Bft) 95,74 %
25.11.2020 00:38 5,1 C 4,4 C 3,9 C 94 % 1018,8 hPa 0,0 l/m 0 min 0 min 0 W/m 19,3 km/h (3 Bft) 95,74 %
25.11.2020 00:40 5,1 C 4,4 C 3,9 C 94 % 1018,8 hPa 0,0 l/m 0 min 0 min 0 W/m 16,1 km/h (3 Bft) 97,83 %
25.11.2020 00:42 5,1 C 4,4 C 3,9 C 94 % 1018,7 hPa 0,0 l/m 0 min 0 min 0 W/m 12,9 km/h (3 Bft) 97,87 %
25.11.2020 00:44 5,1 C 4,4 C 3,9 C 94 % 1018,7 hPa 0,0 l/m 0 min 0 min 0 W/m 3,2 km/h (1 Bft) 97,87 %
25.11.2020 00:46 5,1 C 4,4 C 3,9 C 94 % 1018,7 hPa 0,0 l/m 0 min 0 min 0 W/m 6,4 km/h (2 Bft) 97,87 %
25.11.2020 00:48 5,1 C 4,4 C 3,9 C 94 % 1018,7 hPa 0,0 l/m 0 min 0 min 0 W/m 16,1 km/h (3 Bft) 97,87 %
25.11.2020 00:50 5,1 C 4,4 C 3,9 C 94 % 1018,7 hPa 0,0 l/m 0 min 0 min 0 W/m 6,4 km/h (2 Bft) 97,87 %
25.11.2020 00:52 5,1 C 4,4 C 3,9 C 94 % 1018,6 hPa 0,0 l/m 0 min 0 min 0 W/m 19,3 km/h (3 Bft) 95,65 %
25.11.2020 00:54 5,1 C 4,4 C 3,9 C 94 % 1018,6 hPa 0,0 l/m 0 min 0 min 0 W/m 6,4 km/h (2 Bft) 95,74 %
25.11.2020 00:56 5,1 C 4,4 C 3,9 C 94 % 1018,5 hPa 0,0 l/m 0 min 0 min 0 W/m 6,4 km/h (2 Bft) 95,74 %
25.11.2020 00:58 5,1 C 4,4 C 3,9 C 94 % 1018,5 hPa 0,0 l/m 0 min 0 min 0 W/m 16,1 km/h (3 Bft) 100,00 %
25.11.2020 01:00 5,1 C 4,4 C 3,9 C 94 % 1018,5 hPa 0,0 l/m 0 min 0 min 0 W/m 12,9 km/h (3 Bft) 97,87 %
25.11.2020 01:02 5,1 C 4,4 C 3,9 C 94 % 1018,5 hPa 0,0 l/m 0 min 0 min 0 W/m 16,1 km/h (3 Bft) 100,00 %
25.11.2020 01:04 5,1 C 4,4 C 3,9 C 94 % 1018,4 hPa 0,0 l/m 0 min 0 min 0 W/m 12,9 km/h (3 Bft) 97,87 %
25.11.2020 01:06 5,1 C 4,4 C 3,9 C 94 % 1018,5 hPa 0,0 l/m 0 min 0 min 0 W/m 19,3 km/h (3 Bft) 97,87 %
25.11.2020 01:08 5,1 C 4,4 C 3,9 C 94 % 1018,5 hPa 0,0 l/m 0 min 0 min 0 W/m 12,9 km/h (3 Bft) 97,87 %
25.11.2020 01:10 5,1 C 4,4 C 3,9 C 94 % 1018,5 hPa 0,0 l/m 0 min 0 min 0 W/m 6,4 km/h (2 Bft) 97,87 %
25.11.2020 01:12 5,1 C 4,4 C 3,9 C 94 % 1018,4 hPa 0,0 l/m 0 min 0 min 0 W/m 16,1 km/h (3 Bft) 95,74 %
25.11.2020 01:14 5,1 C 4,4 C 3,9 C 94 % 1018,4 hPa 0,0 l/m 0 min 0 min 0 W/m 12,9 km/h (3 Bft) 97,83 %
25.11.2020 01:16 5,1 C 4,4 C 3,9 C 94 % 1018,3 hPa 0,0 l/m 0 min 0 min 0 W/m 6,4 km/h (2 Bft) 97,87 %
25.11.2020 01:18 5,1 C 4,4 C 3,9 C 94 % 1018,3 hPa 0,0 l/m 0 min 0 min 0 W/m 16,1 km/h (3 Bft) 61,70 %
25.11.2020 01:20 5,1 C 4,4 C 3,9 C 94 % 1018,3 hPa 0,0 l/m 0 min 0 min 0 W/m 12,9 km/h (3 Bft) 88,10 %
25.11.2020 01:22 5,1 C 4,4 C 3,9 C 94 % 1018,3 hPa 0,0 l/m 0 min 0 min 0 W/m 6,4 km/h (2 Bft) 97,30 %
25.11.2020 01:24 5,1 C 4,4 C 3,9 C 94 % 1018,2 hPa 0,0 l/m 0 min 0 min 0 W/m 3,2 km/h (1 Bft) 97,87 %
25.11.2020 01:26 5,1 C 4,4 C 3,9 C 94 % 1018,2 hPa 0,0 l/m 0 min 0 min 0 W/m 16,1 km/h (3 Bft) 97,87 %
25.11.2020 01:28 5,1 C 4,4 C 3,9 C 94 % 1018,2 hPa 0,0 l/m 0 min 0 min 0 W/m 9,7 km/h (2 Bft) 95,74 %
25.11.2020 01:30 5,1 C 4,4 C 3,9 C 94 % 1018,2 hPa 0,0 l/m 0 min 0 min 0 W/m 6,4 km/h (2 Bft) 100,00 %
25.11.2020 01:32 5,0 C 4,4 C 3,9 C 94 % 1018,1 hPa 0,0 l/m 0 min 0 min 0 W/m 16,1 km/h (3 Bft) 95,74 %
25.11.2020 01:34 5,1 C 4,4 C 3,9 C 94 % 1018,1 hPa 0,0 l/m 0 min 0 min 0 W/m 19,3 km/h (3 Bft) 97,87 %
25.11.2020 01:36 5,1 C 4,4 C 3,9 C 94 % 1018,1 hPa 0,0 l/m 0 min 0 min 0 W/m 12,9 km/h (3 Bft) 97,87 %
25.11.2020 01:38 5,1 C 4,4 C 3,9 C 94 % 1018,1 hPa 0,0 l/m 0 min 0 min 0 W/m 12,9 km/h (3 Bft) 95,74 %
25.11.2020 01:40 5,1 C 4,4 C 3,9 C 94 % 1018,1 hPa 0,0 l/m 0 min 0 min 0 W/m 16,1 km/h (3 Bft) 97,87 %
25.11.2020 01:42 5,1 C 4,4 C 3,9 C 94 % 1018,1 hPa 0,0 l/m 0 min 0 min 0 W/m 19,3 km/h (3 Bft) 95,65 %
25.11.2020 01:44 5,0 C 4,4 C 3,9 C 94 % 1018,0 hPa 0,0 l/m 0 min 0 min 0 W/m 16,1 km/h (3 Bft) 97,87 %
25.11.2020 01:46 5,0 C 4,4 C 3,9 C 94 % 1018,0 hPa 0,0 l/m 0 min 0 min 0 W/m 19,3 km/h (3 Bft) 93,62 %
25.11.2020 01:48 5,0 C 4,4 C 3,9 C 94 % 1018,0 hPa 0,0 l/m 0 min 0 min 0 W/m 6,4 km/h (2 Bft) 100,00 %
25.11.2020 01:50 5,0 C 4,4 C 3,9 C 94 % 1018,0 hPa 0,0 l/m 0 min 0 min 0 W/m 19,3 km/h (3 Bft) 100,00 %
25.11.2020 01:52 5,0 C 4,4 C 3,9 C 94 % 1018,0 hPa 0,0 l/m 0 min 0 min 0 W/m 12,9 km/h (3 Bft) 100,00 %
25.11.2020 01:54 5,0 C 4,4 C 3,9 C 94 % 1018,0 hPa 0,0 l/m 0 min 0 min 0 W/m 22,5 km/h (4 Bft) 100,00 %
25.11.2020 01:56 5,0 C 4,4 C 3,9 C 94 % 1018,0 hPa 0,0 l/m 0 min 0 min 0 W/m 19,3 km/h (3 Bft) 100,00 %
25.11.2020 01:58 5,0 C 4,4 C 3,9 C 94 % 1018,0 hPa 0,0 l/m 0 min 0 min 0 W/m 3,2 km/h (1 Bft) 100,00 %
25.11.2020 02:00 5,0 C 4,4 C 3,9 C 94 % 1017,9 hPa 0,0 l/m 0 min 0 min 0 W/m 6,4 km/h (2 Bft) 95,74 %
25.11.2020 02:02 5,0 C 4,4 C 3,9 C 94 % 1017,9 hPa 0,0 l/m 0 min 0 min 0 W/m 16,1 km/h (3 Bft) 96,23 %
25.11.2020 02:04 5,0 C 4,4 C 3,9 C 94 % 1017,9 hPa 0,0 l/m 0 min 0 min 0 W/m 16,1 km/h (3 Bft) 97,87 %
25.11.2020 02:06 4,9 C 4,4 C 3,9 C 94 % 1017,9 hPa 0,0 l/m 0 min 0 min 0 W/m 12,9 km/h (3 Bft) 92,16 %
25.11.2020 02:08 4,9 C 4,4 C 3,9 C 94 % 1017,9 hPa 0,0 l/m 0 min 0 min 0 W/m 16,1 km/h (3 Bft) 97,83 %
25.11.2020 02:10 4,9 C 4,4 C 3,9 C 94 % 1017,9 hPa 0,0 l/m 0 min 0 min 0 W/m 12,9 km/h (3 Bft) 95,74 %
25.11.2020 02:12 4,9 C 4,4 C 3,9 C 94 % 1017,8 hPa 0,0 l/m 0 min 0 min 0 W/m 6,4 km/h (2 Bft) 95,65 %
25.11.2020 02:14 4,9 C 4,4 C 3,9 C 94 % 1017,8 hPa 0,0 l/m 0 min 0 min 0 W/m 12,9 km/h (3 Bft) 97,87 %
25.11.2020 02:16 4,9 C 4,4 C 3,9 C 94 % 1017,8 hPa 0,0 l/m 0 min 0 min 0 W/m 6,4 km/h (2 Bft) 97,87 %
25.11.2020 02:18 4,9 C 4,4 C 3,9 C 94 % 1017,8 hPa 0,0 l/m 0 min 0 min 0 W/m 6,4 km/h (2 Bft) 97,87 %
25.11.2020 02:20 4,9 C 4,4 C 3,9 C 94 % 1017,8 hPa 0,0 l/m 0 min 0 min 0 W/m 12,9 km/h (3 Bft) 95,74 %
25.11.2020 02:22 4,9 C 4,4 C 3,9 C 94 % 1017,8 hPa 0,0 l/m 0 min 0 min 0 W/m 6,4 km/h (2 Bft) 95,74 %
25.11.2020 02:24 4,9 C 4,4 C 3,9 C 94 % 1017,7 hPa 0,0 l/m 0 min 0 min 0 W/m 6,4 km/h (2 Bft) 97,30 %
25.11.2020 02:26 4,9 C 4,4 C 3,9 C 94 % 1017,8 hPa 0,0 l/m 0 min 0 min 0 W/m 6,4 km/h (2 Bft) 51,16 %
25.11.2020 02:28 4,9 C 4,4 C 3,9 C 94 % 1017,7 hPa 0,0 l/m 0 min 0 min 0 W/m 3,2 km/h (1 Bft) 97,83 %
25.11.2020 02:30 4,9 C 4,4 C 3,9 C 94 % 1017,7 hPa 0,0 l/m 0 min 0 min 0 W/m 12,9 km/h (3 Bft) 95,74 %
25.11.2020 02:32 4,9 C 4,4 C 3,9 C 94 % 1017,7 hPa 0,0 l/m 0 min 0 min 0 W/m 6,4 km/h (2 Bft) 94,44 %
25.11.2020 02:34 4,9 C 4,4 C 3,9 C 94 % 1017,7 hPa 0,0 l/m 0 min 0 min 0 W/m 6,4 km/h (2 Bft) 97,87 %
25.11.2020 02:36 4,9 C 4,4 C 3,9 C 94 % 1017,7 hPa 0,0 l/m 0 min 0 min 0 W/m 3,2 km/h (1 Bft) 98,00 %
25.11.2020 02:38 4,9 C 4,4 C 3,9 C 94 % 1017,7 hPa 0,0 l/m 0 min 0 min 0 W/m 12,9 km/h (3 Bft) 97,73 %
25.11.2020 02:40 4,9 C 4,4 C 3,9 C 94 % 1017,7 hPa 0,0 l/m 0 min 0 min 0 W/m 9,7 km/h (2 Bft) 97,87 %
25.11.2020 02:42 4,9 C 4,4 C 3,9 C 94 % 1017,7 hPa 0,0 l/m 0 min 0 min 0 W/m 6,4 km/h (2 Bft) 97,87 %
25.11.2020 02:44 4,9 C 4,4 C 3,9 C 94 % 1017,7 hPa 0,0 l/m 0 min 0 min 0 W/m 6,4 km/h (2 Bft) 97,87 %
25.11.2020 02:46 4,9 C 4,4 C 3,9 C 94 % 1017,6 hPa 0,0 l/m 0 min 0 min 0 W/m 6,4 km/h (2 Bft) 97,87 %
25.11.2020 02:48 4,9 C 4,4 C 3,9 C 94 % 1017,7 hPa 0,0 l/m 0 min 0 min 0 W/m 6,4 km/h (2 Bft) 95,65 %
25.11.2020 02:50 4,9 C 4,4 C 3,9 C 94 % 1017,7 hPa 0,0 l/m 0 min 0 min 0 W/m 9,7 km/h (2 Bft) 100,00 %
25.11.2020 02:52 4,9 C 4,4 C 3,9 C 94 % 1017,7 hPa 0,0 l/m 0 min 0 min 0 W/m 6,4 km/h (2 Bft) 95,74 %
25.11.2020 02:54 4,9 C 4,4 C 3,9 C 94 % 1017,7 hPa 0,0 l/m 0 min 0 min 0 W/m 12,9 km/h (3 Bft) 97,87 %
25.11.2020 02:56 4,8 C 4,4 C 3,9 C 94 % 1017,6 hPa 0,0 l/m 0 min 0 min 0 W/m 19,3 km/h (3 Bft) 97,87 %
25.11.2020 02:58 4,8 C 4,4 C 3,9 C 94 % 1017,6 hPa 0,0 l/m 0 min 0 min 0 W/m 6,4 km/h (2 Bft) 95,74 %
25.11.2020 03:00 4,8 C 4,4 C 3,9 C 94 % 1017,6 hPa 0,0 l/m 0 min 0 min 0 W/m 12,9 km/h (3 Bft) 95,65 %
25.11.2020 03:02 4,8 C 4,4 C 3,9 C 94 % 1017,6 hPa 0,0 l/m 0 min 0 min 0 W/m 6,4 km/h (2 Bft) 95,74 %
25.11.2020 03:04 4,8 C 4,4 C 3,9 C 94 % 1017,5 hPa 0,0 l/m 0 min 0 min 0 W/m 3,2 km/h (1 Bft) 95,74 %
25.11.2020 03:06 4,8 C 4,4 C 3,9 C 94 % 1017,5 hPa 0,0 l/m 0 min 0 min 0 W/m 12,9 km/h (3 Bft) 95,74 %
25.11.2020 03:08 4,8 C 4,4 C 3,9 C 94 % 1017,5 hPa 0,0 l/m 0 min 0 min 0 W/m 6,4 km/h (2 Bft) 95,74 %
25.11.2020 03:10 4,8 C 4,4 C 3,9 C 94 % 1017,5 hPa 0,0 l/m 0 min 0 min 0 W/m 12,9 km/h (3 Bft) 95,74 %
25.11.2020 03:12 4,8 C 4,4 C 3,9 C 94 % 1017,6 hPa 0,0 l/m 0 min 0 min 0 W/m 12,9 km/h (3 Bft) 95,65 %
25.11.2020 03:14 4,8 C 4,4 C 3,9 C 94 % 1017,5 hPa 0,0 l/m 0 min 0 min 0 W/m 9,7 km/h (2 Bft) 93,62 %
25.11.2020 03:16 4,8 C 4,4 C 3,9 C 94 % 1017,5 hPa 0,0 l/m 0 min 0 min 0 W/m 16,1 km/h (3 Bft) 95,74 %
25.11.2020 03:18 4,8 C 4,4 C 3,9 C 94 % 1017,5 hPa 0,0 l/m 0 min 0 min 0 W/m 6,4 km/h (2 Bft) 93,62 %
25.11.2020 03:20 4,8 C 4,4 C 3,9 C 94 % 1017,5 hPa 0,0 l/m 0 min 0 min 0 W/m 9,7 km/h (2 Bft) 93,62 %
25.11.2020 03:22 4,8 C 4,4 C 3,9 C 94 % 1017,5 hPa 0,0 l/m 0 min 0 min 0 W/m 6,4 km/h (2 Bft) 95,74 %
25.11.2020 03:24 4,8 C 4,4 C 3,9 C 94 % 1017,5 hPa 0,0 l/m 0 min 0 min 0 W/m 9,7 km/h (2 Bft) 95,65 %
25.11.2020 03:26 4,8 C 4,4 C 3,9 C 94 % 1017,4 hPa 0,0 l/m 0 min 0 min 0 W/m 6,4 km/h (2 Bft) 96,08 %
25.11.2020 03:28 4,8 C 4,4 C 3,9 C 94 % 1017,4 hPa 0,0 l/m 0 min 0 min 0 W/m 12,9 km/h (3 Bft) 95,74 %
25.11.2020 03:30 4,8 C 4,4 C 3,9 C 94 % 1017,3 hPa 0,0 l/m 0 min 0 min 0 W/m 19,3 km/h (3 Bft) 95,74 %
25.11.2020 03:32 4,8 C 4,4 C 3,9 C 94 % 1017,4 hPa 0,0 l/m 0 min 0 min 0 W/m 19,3 km/h (3 Bft) 93,62 %
25.11.2020 03:34 4,8 C 4,4 C 3,9 C 94 % 1017,3 hPa 0,0 l/m 0 min 0 min 0 W/m 12,9 km/h (3 Bft) 97,83 %
25.11.2020 03:36 4,8 C 4,4 C 3,9 C 94 % 1017,3 hPa 0,0 l/m 0 min 0 min 0 W/m 16,1 km/h (3 Bft) 97,87 %
25.11.2020 03:38 4,8 C 4,4 C 3,9 C 94 % 1017,3 hPa 0,0 l/m 0 min 0 min 0 W/m 12,9 km/h (3 Bft) 95,74 %
25.11.2020 03:40 4,8 C 4,4 C 3,9 C 94 % 1017,3 hPa 0,0 l/m 0 min 0 min 0 W/m 12,9 km/h (3 Bft) 93,62 %
25.11.2020 03:42 4,8 C 4,4 C 3,9 C 94 % 1017,2 hPa 0,0 l/m 0 min 0 min 0 W/m 16,1 km/h (3 Bft) 91,49 %
25.11.2020 03:44 4,8 C 4,4 C 3,9 C 94 % 1017,2 hPa 0,0 l/m 0 min 0 min 0 W/m 12,9 km/h (3 Bft) 93,62 %
25.11.2020 03:46 4,8 C 4,4 C 3,9 C 94 % 1017,2 hPa 0,0 l/m 0 min 0 min 0 W/m 16,1 km/h (3 Bft) 95,65 %
25.11.2020 03:48 4,8 C 4,4 C 3,9 C 94 % 1017,2 hPa 0,0 l/m 0 min 0 min 0 W/m 6,4 km/h (2 Bft) 95,74 %
25.11.2020 03:50 4,8 C 4,4 C 3,9 C 94 % 1017,2 hPa 0,0 l/m 0 min 0 min 0 W/m 12,9 km/h (3 Bft) 97,87 %
25.11.2020 03:52 4,8 C 4,4 C 3,9 C 94 % 1017,2 hPa 0,0 l/m 0 min 0 min 0 W/m 12,9 km/h (3 Bft) 95,74 %
25.11.2020 03:54 4,8 C 4,4 C 3,9 C 94 % 1017,2 hPa 0,0 l/m 0 min 0 min 0 W/m 12,9 km/h (3 Bft) 97,87 %
25.11.2020 03:56 4,8 C 4,4 C 3,9 C 94 % 1017,2 hPa 0,0 l/m 0 min 0 min 0 W/m 6,4 km/h (2 Bft) 95,74 %
25.11.2020 03:58 4,8 C 4,4 C 3,9 C 94 % 1017,2 hPa 0,0 l/m 0 min 0 min 0 W/m 3,2 km/h (1 Bft) 97,83 %
25.11.2020 04:00 4,8 C 4,4 C 3,9 C 94 % 1017,2 hPa 0,0 l/m 0 min 0 min 0 W/m 6,4 km/h (2 Bft) 97,87 %
25.11.2020 04:02 4,8 C 4,4 C 3,9 C 94 % 1017,2 hPa 0,0 l/m 0 min 0 min 0 W/m 3,2 km/h (1 Bft) 90,91 %
25.11.2020 04:04 4,8 C 4,4 C 3,9 C 94 % 1017,2 hPa 0,0 l/m 0 min 0 min 0 W/m 6,4 km/h (2 Bft) 97,87 %
25.11.2020 04:06 4,7 C 4,4 C 3,9 C 94 % 1017,2 hPa 0,0 l/m 0 min 0 min 0 W/m 25,7 km/h (4 Bft) 97,87 %
25.11.2020 04:08 4,8 C 4,4 C 3,9 C 94 % 1017,1 hPa 0,0 l/m 0 min 0 min 0 W/m 9,7 km/h (2 Bft) 97,83 %
25.11.2020 04:10 4,7 C 4,4 C 3,9 C 94 % 1017,1 hPa 0,0 l/m 0 min 0 min 0 W/m 12,9 km/h (3 Bft) 97,87 %
25.11.2020 04:12 4,8 C 4,4 C 3,9 C 94 % 1017,1 hPa 0,0 l/m 0 min 0 min 0 W/m 6,4 km/h (2 Bft) 97,87 %
25.11.2020 04:14 4,7 C 4,4 C 3,9 C 94 % 1017,1 hPa 0,0 l/m 0 min 0 min 0 W/m 19,3 km/h (3 Bft) 97,87 %
25.11.2020 04:16 4,7 C 4,4 C 3,9 C 94 % 1017,0 hPa 0,0 l/m 0 min 0 min 0 W/m 3,2 km/h (1 Bft) 95,74 %
25.11.2020 04:18 4,7 C 3,9 C 3,9 C 94 % 1017,1 hPa 0,0 l/m 0 min 0 min 0 W/m 3,2 km/h (1 Bft) 100,00 %
25.11.2020 04:20 4,7 C 3,9 C 3,4 C 94 % 1017,1 hPa 0,0 l/m 0 min 0 min 0 W/m 6,4 km/h (2 Bft) 100,00 %
25.11.2020 04:22 4,7 C 3,9 C 3,4 C 94 % 1017,1 hPa 0,0 l/m 0 min 0 min 0 W/m 12,9 km/h (3 Bft) 100,00 %
25.11.2020 04:24 4,7 C 4,4 C 3,4 C 94 % 1017,0 hPa 0,0 l/m 0 min 0 min 0 W/m 16,1 km/h (3 Bft) 100,00 %
25.11.2020 04:26 4,7 C 4,4 C 3,9 C 94 % 1017,0 hPa 0,0 l/m 0 min 0 min 0 W/m 6,4 km/h (2 Bft) 100,00 %
25.11.2020 04:28 4,7 C 3,9 C 3,4 C 94 % 1017,0 hPa 0,0 l/m 0 min 0 min 0 W/m 3,2 km/h (1 Bft) 100,00 %
25.11.2020 04:30 4,6 C 3,9 C 3,4 C 94 % 1017,0 hPa 0,0 l/m 0 min 0 min 0 W/m 9,7 km/h (2 Bft) 97,87 %
25.11.2020 04:32 4,6 C 3,9 C 3,4 C 94 % 1017,0 hPa 0,0 l/m 0 min 0 min 0 W/m 6,4 km/h (2 Bft) 100,00 %
25.11.2020 04:34 4,6 C 3,9 C 3,4 C 94 % 1017,0 hPa 0,0 l/m 0 min 0 min 0 W/m 6,4 km/h (2 Bft) 100,00 %
25.11.2020 04:36 4,6 C 3,9 C 3,4 C 94 % 1017,0 hPa 0,0 l/m 0 min 0 min 0 W/m 12,9 km/h (3 Bft) 100,00 %
25.11.2020 04:38 4,6 C 4,4 C 3,4 C 94 % 1017,1 hPa 0,0 l/m 0 min 0 min 0 W/m 25,7 km/h (4 Bft) 100,00 %
25.11.2020 04:40 4,6 C 4,4 C 3,9 C 94 % 1017,0 hPa 0,0 l/m 0 min 0 min 0 W/m 12,9 km/h (3 Bft) 100,00 %
25.11.2020 04:42 4,6 C 3,9 C 3,4 C 94 % 1017,0 hPa 0,0 l/m 0 min 0 min 0 W/m 9,7 km/h (2 Bft) 100,00 %
25.11.2020 04:44 4,6 C 3,9 C 3,4 C 94 % 1017,1 hPa 0,0 l/m 0 min 0 min 0 W/m 12,9 km/h (3 Bft) 97,87 %
25.11.2020 04:46 4,6 C 3,9 C 3,4 C 94 % 1017,1 hPa 0,0 l/m 0 min 0 min 0 W/m 3,2 km/h (1 Bft) 100,00 %
25.11.2020 04:48 4,6 C 3,9 C 3,4 C 94 % 1017,1 hPa 0,0 l/m 0 min 0 min 0 W/m 12,9 km/h (3 Bft) 100,00 %
25.11.2020 04:50 4,6 C 3,9 C 3,4 C 94 % 1017,0 hPa 0,0 l/m 0 min 0 min 0 W/m 6,4 km/h (2 Bft) 100,00 %
25.11.2020 04:52 4,6 C 3,9 C 3,4 C 94 % 1017,1 hPa 0,0 l/m 0 min 0 min 0 W/m 16,1 km/h (3 Bft) 97,87 %
25.11.2020 04:54 4,6 C 3,9 C 3,4 C 94 % 1017,1 hPa 0,0 l/m 0 min 0 min 0 W/m 6,4 km/h (2 Bft) 100,00 %
25.11.2020 04:56 4,6 C 3,9 C 3,4 C 94 % 1017,1 hPa 0,0 l/m 0 min 0 min 0 W/m 12,9 km/h (3 Bft) 97,87 %
25.11.2020 04:58 4,6 C 3,9 C 3,4 C 94 % 1017,1 hPa 0,0 l/m 0 min 0 min 0 W/m 16,1 km/h (3 Bft) 100,00 %
25.11.2020 05:00 4,6 C 3,9 C 3,4 C 94 % 1017,1 hPa 0,0 l/m 0 min 0 min 0 W/m 12,9 km/h (3 Bft) 100,00 %
25.11.2020 05:02 4,6 C 3,9 C 3,4 C 94 % 1017,1 hPa 0,0 l/m 0 min 0 min 0 W/m 6,4 km/h (2 Bft) 95,74 %
25.11.2020 05:04 4,6 C 3,9 C 3,4 C 94 % 1017,1 hPa 0,0 l/m 0 min 0 min 0 W/m 19,3 km/h (3 Bft) 100,00 %
25.11.2020 05:06 4,6 C 3,9 C 3,4 C 94 % 1017,1 hPa 0,0 l/m 0 min 0 min 0 W/m 9,7 km/h (2 Bft) 100,00 %
25.11.2020 05:08 4,6 C 3,9 C 3,4 C 94 % 1017,1 hPa 0,0 l/m 0 min 0 min 0 W/m 16,1 km/h (3 Bft) 100,00 %
25.11.2020 05:10 4,6 C 3,9 C 3,4 C 94 % 1017,1 hPa 0,0 l/m 0 min 0 min 0 W/m 19,3 km/h (3 Bft) 100,00 %
25.11.2020 05:12 4,6 C 3,9 C 3,4 C 94 % 1017,1 hPa 0,0 l/m 0 min 0 min 0 W/m 12,9 km/h (3 Bft) 100,00 %
25.11.2020 05:14 4,6 C 3,9 C 3,4 C 94 % 1017,1 hPa 0,0 l/m 0 min 0 min 0 W/m 16,1 km/h (3 Bft) 97,87 %
25.11.2020 05:16 4,6 C 3,9 C 3,4 C 94 % 1017,1 hPa 0,0 l/m 0 min 0 min 0 W/m 22,5 km/h (4 Bft) 100,00 %
25.11.2020 05:18 4,6 C 3,9 C 3,4 C 94 % 1017,1 hPa 0,0 l/m 0 min 0 min 0 W/m 12,9 km/h (3 Bft) 100,00 %
25.11.2020 05:20 4,6 C 3,9 C 3,4 C 94 % 1017,0 hPa 0,0 l/m 0 min 0 min 0 W/m 12,9 km/h (3 Bft) 100,00 %
25.11.2020 05:22 4,6 C 3,9 C 3,4 C 94 % 1017,0 hPa 0,0 l/m 0 min 0 min 0 W/m 19,3 km/h (3 Bft) 100,00 %
25.11.2020 05:24 4,6 C 3,9 C 3,4 C 94 % 1017,0 hPa 0,0 l/m 0 min 0 min 0 W/m 6,4 km/h (2 Bft) 100,00 %
25.11.2020 05:26 4,6 C 3,9 C 3,4 C 94 % 1017,1 hPa 0,0 l/m 0 min 0 min 0 W/m 12,9 km/h (3 Bft) 100,00 %
25.11.2020 05:28 4,5 C 3,9 C 3,4 C 94 % 1017,0 hPa 0,0 l/m 0 min 0 min 0 W/m 6,4 km/h (2 Bft) 100,00 %
25.11.2020 05:30 4,5 C 3,9 C 3,4 C 94 % 1016,9 hPa 0,0 l/m 0 min 0 min 0 W/m 6,4 km/h (2 Bft) 100,00 %
25.11.2020 05:32 4,5 C 3,9 C 3,4 C 94 % 1016,9 hPa 0,0 l/m 0 min 0 min 0 W/m 16,1 km/h (3 Bft) 100,00 %
25.11.2020 05:34 4,5 C 3,9 C 3,4 C 94 % 1016,9 hPa 0,0 l/m 0 min 0 min 0 W/m 6,4 km/h (2 Bft) 100,00 %
25.11.2020 05:36 4,5 C 3,9 C 3,4 C 94 % 1016,9 hPa 0,0 l/m 0 min 0 min 0 W/m 9,7 km/h (2 Bft) 100,00 %
25.11.2020 05:38 4,5 C 3,9 C 3,4 C 94 % 1016,9 hPa 0,0 l/m 0 min 0 min 0 W/m 6,4 km/h (2 Bft) 97,87 %
25.11.2020 05:40 4,5 C 3,9 C 3,4 C 94 % 1016,9 hPa 0,0 l/m 0 min 0 min 0 W/m 6,4 km/h (2 Bft) 98,18 %
25.11.2020 05:42 4,5 C 3,9 C 3,4 C 94 % 1016,9 hPa 0,0 l/m 0 min 0 min 0 W/m 3,2 km/h (1 Bft) 100,00 %
25.11.2020 05:44 4,5 C 3,9 C 3,4 C 94 % 1016,9 hPa 0,0 l/m 0 min 0 min 0 W/m 16,1 km/h (3 Bft) 97,87 %
25.11.2020 05:46 4,5 C 3,9 C 3,4 C 94 % 1016,9 hPa 0,0 l/m 0 min 0 min 0 W/m 16,1 km/h (3 Bft) 100,00 %
25.11.2020 05:48 4,5 C 3,9 C 3,4 C 94 % 1016,8 hPa 0,0 l/m 0 min 0 min 0 W/m 9,7 km/h (2 Bft) 100,00 %
25.11.2020 05:50 4,5 C 3,9 C 3,4 C 94 % 1016,8 hPa 0,0 l/m 0 min 0 min 0 W/m 6,4 km/h (2 Bft) 97,87 %
25.11.2020 05:52 4,5 C 3,9 C 3,4 C 94 % 1016,9 hPa 0,0 l/m 0 min 0 min 0 W/m 6,4 km/h (2 Bft) 97,87 %
25.11.2020 05:54 4,5 C 3,9 C 3,4 C 94 % 1016,8 hPa 0,0 l/m 0 min 0 min 0 W/m 6,4 km/h (2 Bft) 95,65 %
25.11.2020 05:56 4,6 C 3,9 C 3,4 C 94 % 1016,8 hPa 0,0 l/m 0 min 0 min 0 W/m 12,9 km/h (3 Bft) 93,62 %
25.11.2020 05:58 4,6 C 3,9 C 3,4 C 94 % 1016,8 hPa 0,0 l/m 0 min 0 min 0 W/m 6,4 km/h (2 Bft) 97,87 %
25.11.2020 06:00 4,6 C 3,9 C 3,4 C 94 % 1016,8 hPa 0,0 l/m 0 min 0 min 0 W/m 12,9 km/h (3 Bft) 97,87 %
25.11.2020 06:02 4,6 C 3,9 C 3,4 C 94 % 1016,8 hPa 0,0 l/m 0 min 0 min 0 W/m 16,1 km/h (3 Bft) 97,87 %
25.11.2020 06:04 4,5 C 3,9 C 3,4 C 94 % 1016,7 hPa 0,0 l/m 0 min 0 min 0 W/m 12,9 km/h (3 Bft) 95,74 %
25.11.2020 06:08 4,5 C 3,9 C 3,4 C 94 % 1016,7 hPa 0,0 l/m 0 min 0 min 0 W/m 16,1 km/h (3 Bft) 95,70 %
25.11.2020 06:10 4,5 C 3,9 C 3,4 C 94 % 1016,7 hPa 0,0 l/m 0 min 0 min 0 W/m 12,9 km/h (3 Bft) 91,49 %
25.11.2020 06:12 4,6 C 4,4 C 3,9 C 94 % 1016,7 hPa 0,0 l/m 0 min 0 min 0 W/m 19,3 km/h (3 Bft) 93,62 %
25.11.2020 06:14 4,6 C 4,4 C 3,9 C 94 % 1016,7 hPa 0,0 l/m 0 min 0 min 0 W/m 12,9 km/h (3 Bft) 95,83 %
25.11.2020 06:16 4,6 C 4,4 C 3,9 C 94 % 1016,6 hPa 0,0 l/m 0 min 0 min 0 W/m 0,0 km/h (0 Bft) 95,74 %
25.11.2020 06:18 4,6 C 3,9 C 3,4 C 94 % 1016,6 hPa 0,0 l/m 0 min 0 min 0 W/m 9,7 km/h (2 Bft) 95,65 %
25.11.2020 06:20 4,6 C 3,9 C 3,4 C 94 % 1016,6 hPa 0,0 l/m 0 min 0 min 0 W/m 19,3 km/h (3 Bft) 95,74 %
25.11.2020 06:22 4,6 C 4,4 C 3,9 C 94 % 1016,6 hPa 0,0 l/m 0 min 0 min 0 W/m 12,9 km/h (3 Bft) 95,74 %
25.11.2020 06:24 4,6 C 4,4 C 3,9 C 94 % 1016,6 hPa 0,0 l/m 0 min 0 min 0 W/m 12,9 km/h (3 Bft) 95,74 %
25.11.2020 06:26 4,6 C 4,4 C 3,9 C 94 % 1016,6 hPa 0,0 l/m 0 min 0 min 0 W/m 19,3 km/h (3 Bft) 91,49 %
25.11.2020 06:28 4,6 C 4,4 C 3,9 C 94 % 1016,5 hPa 0,0 l/m 0 min 0 min 0 W/m 22,5 km/h (4 Bft) 95,74 %
25.11.2020 06:30 4,7 C 4,4 C 3,9 C 95 % 1016,5 hPa 0,0 l/m 0 min 0 min 0 W/m 19,3 km/h (3 Bft) 95,65 %
25.11.2020 06:32 4,7 C 4,4 C 3,9 C 94 % 1016,5 hPa 0,0 l/m 0 min 0 min 0 W/m 6,4 km/h (2 Bft) 95,56 %
25.11.2020 06:34 4,7 C 4,4 C 3,9 C 94 % 1016,5 hPa 0,0 l/m 0 min 0 min 0 W/m 12,9 km/h (3 Bft) 95,74 %
25.11.2020 06:36 4,7 C 4,4 C 3,9 C 94 % 1016,4 hPa 0,0 l/m 0 min 0 min 0 W/m 6,4 km/h (2 Bft) 96,08 %
25.11.2020 06:38 4,7 C 4,4 C 3,9 C 94 % 1016,5 hPa 0,0 l/m 0 min 0 min 0 W/m 12,9 km/h (3 Bft) 95,56 %
25.11.2020 06:40 4,7 C 4,4 C 3,9 C 94 % 1016,5 hPa 0,0 l/m 0 min 0 min 0 W/m 19,3 km/h (3 Bft) 97,83 %
25.11.2020 06:42 4,7 C 3,9 C 3,9 C 94 % 1016,5 hPa 0,0 l/m 0 min 0 min 0 W/m 16,1 km/h (3 Bft) 95,74 %
25.11.2020 06:44 4,7 C 3,9 C 3,9 C 94 % 1016,5 hPa 0,0 l/m 0 min 0 min 0 W/m 12,9 km/h (3 Bft) 97,87 %
25.11.2020 06:46 4,7 C 3,9 C 3,9 C 94 % 1016,6 hPa 0,0 l/m 0 min 0 min 0 W/m 12,9 km/h (3 Bft) 97,87 %
25.11.2020 06:48 4,7 C 4,4 C 3,9 C 94 % 1016,6 hPa 0,0 l/m 0 min 0 min 0 W/m 12,9 km/h (3 Bft) 97,87 %
25.11.2020 06:50 4,7 C 3,9 C 3,9 C 94 % 1016,5 hPa 0,0 l/m 0 min 0 min 0 W/m 9,7 km/h (2 Bft) 97,87 %
25.11.2020 06:52 4,7 C 3,9 C 3,4 C 94 % 1016,5 hPa 0,0 l/m 0 min 0 min 0 W/m 6,4 km/h (2 Bft) 97,83 %
25.11.2020 06:54 4,7 C 3,9 C 3,4 C 94 % 1016,5 hPa 0,0 l/m 0 min 0 min 0 W/m 6,4 km/h (2 Bft) 97,87 %
25.11.2020 06:56 4,6 C 3,9 C 3,4 C 94 % 1016,6 hPa 0,0 l/m 0 min 0 min 0 W/m 6,4 km/h (2 Bft) 97,87 %
25.11.2020 06:58 4,6 C 3,9 C 3,4 C 94 % 1016,5 hPa 0,0 l/m 0 min 0 min 0 W/m 9,7 km/h (2 Bft) 97,87 %
25.11.2020 07:00 4,6 C 3,9 C 3,4 C 94 % 1016,6 hPa 0,0 l/m 0 min 0 min 0 W/m 12,9 km/h (3 Bft) 97,87 %
25.11.2020 07:02 4,6 C 3,9 C 3,4 C 94 % 1016,5 hPa 0,0 l/m 0 min 0 min 0 W/m 6,4 km/h (2 Bft) 95,74 %
25.11.2020 07:04 4,6 C 3,9 C 3,9 C 94 % 1016,6 hPa 0,0 l/m 0 min 0 min 0 W/m 19,3 km/h (3 Bft) 97,83 %
25.11.2020 07:06 4,6 C 3,9 C 3,4 C 94 % 1016,6 hPa 0,0 l/m 0 min 0 min 0 W/m 12,9 km/h (3 Bft) 95,92 %
25.11.2020 07:08 4,6 C 3,9 C 3,4 C 94 % 1016,5 hPa 0,0 l/m 0 min 0 min 0 W/m 9,7 km/h (2 Bft) 97,92 %
25.11.2020 07:10 4,6 C 3,9 C 3,4 C 94 % 1016,5 hPa 0,0 l/m 0 min 0 min 0 W/m 12,9 km/h (3 Bft) 97,87 %
25.11.2020 07:12 4,6 C 3,9 C 3,9 C 94 % 1016,5 hPa 0,0 l/m 0 min 0 min 0 W/m 19,3 km/h (3 Bft) 97,87 %
25.11.2020 07:14 4,6 C 3,9 C 3,9 C 94 % 1016,5 hPa 0,0 l/m 0 min 0 min 0 W/m 12,9 km/h (3 Bft) 97,87 %
25.11.2020 07:16 4,6 C 4,4 C 3,9 C 94 % 1016,5 hPa 0,0 l/m 0 min 0 min 0 W/m 16,1 km/h (3 Bft) 97,14 %
25.11.2020 07:18 4,6 C 4,4 C 3,9 C 94 % 1016,5 hPa 0,0 l/m 0 min 0 min 0 W/m 16,1 km/h (3 Bft) 98,15 %
25.11.2020 07:20 4,6 C 4,4 C 3,9 C 94 % 1016,5 hPa 0,0 l/m 0 min 0 min 0 W/m 16,1 km/h (3 Bft) 97,92 %
25.11.2020 07:22 4,6 C 3,9 C 3,9 C 94 % 1016,4 hPa 0,0 l/m 0 min 0 min 0 W/m 16,1 km/h (3 Bft) 97,92 %
25.11.2020 07:24 4,6 C 4,4 C 3,9 C 94 % 1016,5 hPa 0,0 l/m 0 min 0 min 0 W/m 16,1 km/h (3 Bft) 97,92 %
25.11.2020 07:26 4,6 C 3,9 C 3,9 C 94 % 1016,6 hPa 0,0 l/m 0 min 0 min 0 W/m 6,4 km/h (2 Bft) 97,87 %
25.11.2020 07:28 4,6 C 3,9 C 3,9 C 94 % 1016,6 hPa 0,0 l/m 0 min 0 min 0 W/m 12,9 km/h (3 Bft) 95,74 %
25.11.2020 07:30 4,6 C 3,9 C 3,4 C 94 % 1016,6 hPa 0,0 l/m 0 min 0 min 0 W/m 6,4 km/h (2 Bft) 97,87 %
25.11.2020 07:32 4,6 C 3,9 C 3,4 C 94 % 1016,6 hPa 0,0 l/m 0 min 0 min 0 W/m 6,4 km/h (2 Bft) 97,87 %
25.11.2020 07:34 4,6 C 3,9 C 3,4 C 94 % 1016,7 hPa 0,0 l/m 0 min 0 min 0 W/m 12,9 km/h (3 Bft) 97,87 %
25.11.2020 07:36 4,6 C 3,9 C 3,4 C 94 % 1016,7 hPa 0,0 l/m 0 min 0 min 0 W/m 6,4 km/h (2 Bft) 97,87 %
25.11.2020 07:38 4,6 C 3,9 C 3,4 C 94 % 1016,7 hPa 0,0 l/m 0 min 0 min 0 W/m 19,3 km/h (3 Bft) 95,65 %
25.11.2020 07:40 4,6 C 3,9 C 3,4 C 94 % 1016,7 hPa 0,0 l/m 0 min 0 min 0 W/m 9,7 km/h (2 Bft) 97,87 %
25.11.2020 07:42 4,6 C 3,9 C 3,4 C 94 % 1016,7 hPa 0,0 l/m 0 min 0 min 0 W/m 12,9 km/h (3 Bft) 97,87 %
25.11.2020 07:44 4,6 C 3,9 C 3,4 C 94 % 1016,7 hPa 0,0 l/m 0 min 0 min 0 W/m 16,1 km/h (3 Bft) 97,87 %
25.11.2020 07:46 4,6 C 3,9 C 3,4 C 94 % 1016,7 hPa 0,0 l/m 0 min 0 min 0 W/m 12,9 km/h (3 Bft) 97,87 %
25.11.2020 07:48 4,6 C 3,9 C 3,4 C 94 % 1016,7 hPa 0,0 l/m 0 min 0 min 0 W/m 19,3 km/h (3 Bft) 97,87 %
25.11.2020 07:50 4,6 C 3,9 C 3,4 C 94 % 1016,7 hPa 0,0 l/m 0 min 0 min 0 W/m 6,4 km/h (2 Bft) 97,83 %
25.11.2020 07:52 4,6 C 3,9 C 3,4 C 94 % 1016,8 hPa 0,0 l/m 0 min 0 min 0 W/m 22,5 km/h (4 Bft) 97,87 %
25.11.2020 07:54 4,6 C 3,9 C 3,4 C 94 % 1016,8 hPa 0,0 l/m 0 min 0 min 0 W/m 12,9 km/h (3 Bft) 97,87 %
25.11.2020 07:56 4,6 C 3,9 C 3,4 C 94 % 1016,8 hPa 0,0 l/m 0 min 0 min 0 W/m 12,9 km/h (3 Bft) 97,87 %
25.11.2020 07:58 4,6 C 4,4 C 3,9 C 94 % 1016,8 hPa 0,0 l/m 0 min 0 min 0 W/m 16,1 km/h (3 Bft) 97,87 %
25.11.2020 08:00 4,6 C 3,9 C 3,4 C 94 % 1016,8 hPa 0,0 l/m 0 min 0 min 0 W/m 16,1 km/h (3 Bft) 97,87 %
25.11.2020 08:02 4,6 C 3,9 C 3,4 C 94 % 1016,9 hPa 0,0 l/m 0 min 0 min 0 W/m 16,1 km/h (3 Bft) 97,83 %
25.11.2020 08:04 4,6 C 3,9 C 3,9 C 94 % 1016,9 hPa 0,0 l/m 0 min 0 min 0 W/m 12,9 km/h (3 Bft) 97,87 %
25.11.2020 08:06 4,6 C 3,9 C 3,9 C 94 % 1016,9 hPa 0,0 l/m 0 min 0 min 0 W/m 9,7 km/h (2 Bft) 97,87 %
25.11.2020 08:08 4,6 C 4,4 C 3,9 C 94 % 1017,0 hPa 0,0 l/m 0 min 0 min 5 W/m 16,1 km/h (3 Bft) 97,87 %
25.11.2020 08:10 4,6 C 4,4 C 3,9 C 94 % 1017,0 hPa 0,0 l/m 0 min 0 min 5 W/m 19,3 km/h (3 Bft) 97,87 %
25.11.2020 08:12 4,6 C 4,4 C 3,9 C 94 % 1017,0 hPa 0,0 l/m 0 min 0 min 5 W/m 19,3 km/h (3 Bft) 97,87 %
25.11.2020 08:14 4,6 C 4,4 C 3,9 C 94 % 1017,1 hPa 0,0 l/m 0 min 0 min 5 W/m 16,1 km/h (3 Bft) 95,65 %
25.11.2020 08:16 4,6 C 4,4 C 3,9 C 94 % 1017,1 hPa 0,0 l/m 0 min 0 min 6 W/m 12,9 km/h (3 Bft) 97,87 %
25.11.2020 08:18 4,6 C 3,9 C 3,9 C 94 % 1017,1 hPa 0,0 l/m 0 min 0 min 7 W/m 16,1 km/h (3 Bft) 100,00 %
25.11.2020 08:20 4,6 C 3,9 C 3,9 C 94 % 1017,2 hPa 0,0 l/m 0 min 0 min 7 W/m 19,3 km/h (3 Bft) 100,00 %
25.11.2020 08:22 4,6 C 3,9 C 3,9 C 94 % 1017,1 hPa 0,0 l/m 0 min 0 min 8 W/m 12,9 km/h (3 Bft) 100,00 %
25.11.2020 08:24 4,6 C 3,9 C 3,9 C 94 % 1017,2 hPa 0,0 l/m 0 min 0 min 9 W/m 12,9 km/h (3 Bft) 100,00 %
25.11.2020 08:26 4,6 C 3,9 C 3,9 C 94 % 1017,2 hPa 0,0 l/m 0 min 0 min 10 W/m 16,1 km/h (3 Bft) 100,00 %
25.11.2020 08:28 4,6 C 3,9 C 3,9 C 94 % 1017,2 hPa 0,0 l/m 0 min 0 min 11 W/m 12,9 km/h (3 Bft) 100,00 %
25.11.2020 08:30 4,6 C 3,9 C 3,9 C 94 % 1017,2 hPa 0,0 l/m 0 min 0 min 11 W/m 6,4 km/h (2 Bft) 100,00 %
25.11.2020 08:32 4,6 C 3,9 C 3,9 C 94 % 1017,2 hPa 0,0 l/m 0 min 0 min 11 W/m 3,2 km/h (1 Bft) 93,62 %
25.11.2020 08:34 4,6 C 4,4 C 3,9 C 94 % 1017,2 hPa 0,0 l/m 0 min 0 min 11 W/m 19,3 km/h (3 Bft) 97,87 %
25.11.2020 08:36 4,6 C 4,4 C 3,9 C 94 % 1017,3 hPa 0,0 l/m 0 min 0 min 12 W/m 16,1 km/h (3 Bft) 97,83 %
25.11.2020 08:38 4,6 C 4,4 C 3,9 C 94 % 1017,2 hPa 0,0 l/m 0 min 0 min 12 W/m 16,1 km/h (3 Bft) 97,87 %
25.11.2020 08:40 4,6 C 4,4 C 3,9 C 94 % 1017,2 hPa 0,0 l/m 0 min 0 min 12 W/m 19,3 km/h (3 Bft) 97,87 %
25.11.2020 08:42 4,6 C 4,4 C 3,9 C 94 % 1017,2 hPa 0,0 l/m 0 min 0 min 12 W/m 12,9 km/h (3 Bft) 93,62 %
25.11.2020 08:44 4,6 C 4,4 C 3,9 C 94 % 1017,2 hPa 0,0 l/m 0 min 0 min 13 W/m 12,9 km/h (3 Bft) 93,62 %
25.11.2020 08:46 4,6 C 4,4 C 3,9 C 94 % 1017,2 hPa 0,0 l/m 0 min 0 min 15 W/m 12,9 km/h (3 Bft) 93,62 %
25.11.2020 08:48 4,6 C 4,4 C 3,9 C 94 % 1017,2 hPa 0,0 l/m 0 min 0 min 16 W/m 9,7 km/h (2 Bft) 95,65 %
25.11.2020 08:50 4,6 C 4,4 C 3,9 C 94 % 1017,2 hPa 0,0 l/m 0 min 0 min 16 W/m 12,9 km/h (3 Bft) 95,74 %
25.11.2020 08:52 4,6 C 4,4 C 3,9 C 94 % 1017,2 hPa 0,0 l/m 0 min 0 min 18 W/m 12,9 km/h (3 Bft) 74,47 %
25.11.2020 08:54 4,6 C 4,4 C 3,9 C 94 % 1017,3 hPa 0,0 l/m 0 min 0 min 18 W/m 3,2 km/h (1 Bft) 74,42 %
25.11.2020 08:56 4,6 C 4,4 C 3,9 C 94 % 1017,2 hPa 0,0 l/m 0 min 0 min 19 W/m 12,9 km/h (3 Bft) 95,74 %
25.11.2020 08:58 4,6 C 4,4 C 3,9 C 94 % 1017,3 hPa 0,0 l/m 0 min 0 min 19 W/m 12,9 km/h (3 Bft) 95,74 %
25.11.2020 09:00 4,6 C 4,4 C 3,9 C 94 % 1017,4 hPa 0,0 l/m 0 min 0 min 19 W/m 12,9 km/h (3 Bft) 95,65 %
25.11.2020 09:02 4,6 C 4,4 C 3,9 C 94 % 1017,3 hPa 0,0 l/m 0 min 0 min 20 W/m 6,4 km/h (2 Bft) 93,62 %
25.11.2020 09:04 4,6 C 4,4 C 3,9 C 94 % 1017,4 hPa 0,0 l/m 0 min 0 min 19 W/m 22,5 km/h (4 Bft) 95,74 %
25.11.2020 09:06 4,6 C 4,4 C 3,9 C 94 % 1017,4 hPa 0,0 l/m 0 min 0 min 20 W/m 12,9 km/h (3 Bft) 95,74 %
25.11.2020 09:08 4,7 C 4,4 C 3,9 C 95 % 1017,4 hPa 0,0 l/m 0 min 0 min 21 W/m 16,1 km/h (3 Bft) 95,74 %
25.11.2020 09:10 4,7 C 4,4 C 3,9 C 95 % 1017,4 hPa 0,0 l/m 0 min 0 min 21 W/m 19,3 km/h (3 Bft) 95,74 %
25.11.2020 09:12 4,7 C 4,4 C 3,9 C 95 % 1017,4 hPa 0,0 l/m 0 min 0 min 21 W/m 6,4 km/h (2 Bft) 95,65 %
25.11.2020 09:14 4,7 C 4,4 C 3,9 C 95 % 1017,5 hPa 0,0 l/m 0 min 0 min 21 W/m 12,9 km/h (3 Bft) 93,62 %
25.11.2020 09:16 4,8 C 4,4 C 3,9 C 95 % 1017,4 hPa 0,0 l/m 0 min 0 min 21 W/m 12,9 km/h (3 Bft) 93,62 %
25.11.2020 09:18 4,8 C 4,4 C 3,9 C 95 % 1017,5 hPa 0,0 l/m 0 min 0 min 21 W/m 29,0 km/h (5 Bft) 91,49 %
25.11.2020 09:20 4,8 C 4,4 C 3,9 C 95 % 1017,6 hPa 0,0 l/m 0 min 0 min 22 W/m 12,9 km/h (3 Bft) 97,87 %
25.11.2020 09:22 4,8 C 4,4 C 3,9 C 95 % 1017,6 hPa 0,0 l/m 0 min 0 min 24 W/m 12,9 km/h (3 Bft) 97,87 %
25.11.2020 09:24 4,8 C 4,4 C 3,9 C 95 % 1017,6 hPa 0,0 l/m 0 min 0 min 25 W/m 16,1 km/h (3 Bft) 100,00 %
25.11.2020 09:26 4,8 C 4,4 C 3,9 C 95 % 1017,6 hPa 0,0 l/m 0 min 0 min 26 W/m 3,2 km/h (1 Bft) 100,00 %
25.11.2020 09:28 4,8 C 4,4 C 3,9 C 95 % 1017,6 hPa 0,0 l/m 0 min 0 min 27 W/m 12,9 km/h (3 Bft) 100,00 %
25.11.2020 09:30 4,8 C 4,4 C 3,9 C 95 % 1017,6 hPa 0,0 l/m 0 min 0 min 28 W/m 16,1 km/h (3 Bft) 100,00 %
25.11.2020 09:32 4,8 C 4,4 C 3,9 C 95 % 1017,6 hPa 0,0 l/m 0 min 0 min 29 W/m 16,1 km/h (3 Bft) 100,00 %
25.11.2020 09:34 4,9 C 4,4 C 3,9 C 95 % 1017,6 hPa 0,0 l/m 0 min 0 min 30 W/m 19,3 km/h (3 Bft) 100,00 %
25.11.2020 09:36 4,9 C 4,4 C 4,5 C 95 % 1017,6 hPa 0,0 l/m 0 min 0 min 30 W/m 16,1 km/h (3 Bft) 97,87 %
25.11.2020 09:38 4,9 C 5,0 C 4,5 C 94 % 1017,6 hPa 0,0 l/m 0 min 0 min 30 W/m 16,1 km/h (3 Bft) 100,00 %
25.11.2020 09:40 4,9 C 5,0 C 4,5 C 94 % 1017,6 hPa 0,0 l/m 0 min 0 min 32 W/m 19,3 km/h (3 Bft) 100,00 %
25.11.2020 09:42 4,9 C 5,0 C 4,5 C 94 % 1017,6 hPa 0,0 l/m 0 min 0 min 32 W/m 12,9 km/h (3 Bft) 100,00 %
25.11.2020 09:44 4,9 C 5,0 C 4,5 C 94 % 1017,6 hPa 0,0 l/m 0 min 0 min 33 W/m 12,9 km/h (3 Bft) 100,00 %
25.11.2020 09:46 5,0 C 5,0 C 4,5 C 94 % 1017,6 hPa 0,0 l/m 0 min 0 min 33 W/m 12,9 km/h (3 Bft) 100,00 %
25.11.2020 09:48 5,0 C 5,0 C 4,5 C 94 % 1017,6 hPa 0,0 l/m 0 min 0 min 35 W/m 12,9 km/h (3 Bft) 100,00 %
25.11.2020 09:50 5,0 C 5,0 C 4,5 C 94 % 1017,6 hPa 0,0 l/m 0 min 0 min 35 W/m 22,5 km/h (4 Bft) 100,00 %
25.11.2020 09:52 5,0 C 5,0 C 4,5 C 94 % 1017,6 hPa 0,0 l/m 0 min 0 min 37 W/m 16,1 km/h (3 Bft) 100,00 %
25.11.2020 09:54 5,0 C 5,0 C 4,5 C 94 % 1017,6 hPa 0,0 l/m 0 min 0 min 38 W/m 16,1 km/h (3 Bft) 100,00 %
25.11.2020 09:56 5,0 C 5,0 C 4,5 C 94 % 1017,6 hPa 0,0 l/m 0 min 0 min 39 W/m 9,7 km/h (2 Bft) 100,00 %
25.11.2020 09:58 5,0 C 5,0 C 4,5 C 94 % 1017,6 hPa 0,0 l/m 0 min 0 min 39 W/m 6,4 km/h (2 Bft) 82,98 %
25.11.2020 10:00 5,1 C 5,0 C 4,5 C 94 % 1017,7 hPa 0,0 l/m 0 min 0 min 39 W/m 19,3 km/h (3 Bft) 67,57 %
25.11.2020 10:02 5,1 C 5,0 C 4,5 C 94 % 1017,7 hPa 0,0 l/m 0 min 0 min 40 W/m 16,1 km/h (3 Bft) 100,00 %
25.11.2020 10:04 5,1 C 5,0 C 4,5 C 94 % 1017,7 hPa 0,0 l/m 0 min 0 min 40 W/m 12,9 km/h (3 Bft) 100,00 %
25.11.2020 10:06 5,1 C 5,0 C 4,5 C 94 % 1017,7 hPa 0,0 l/m 0 min 0 min 40 W/m 16,1 km/h (3 Bft) 97,87 %
25.11.2020 10:08 5,1 C 5,0 C 4,5 C 94 % 1017,7 hPa 0,0 l/m 0 min 0 min 42 W/m 16,1 km/h (3 Bft) 100,00 %
25.11.2020 10:10 5,1 C 5,0 C 4,5 C 94 % 1017,6 hPa 0,0 l/m 0 min 0 min 42 W/m 12,9 km/h (3 Bft) 97,83 %
25.11.2020 10:12 5,1 C 5,0 C 4,5 C 94 % 1017,7 hPa 0,0 l/m 0 min 0 min 44 W/m 6,4 km/h (2 Bft) 100,00 %
25.11.2020 10:14 5,2 C 5,0 C 4,5 C 94 % 1017,7 hPa 0,0 l/m 0 min 0 min 45 W/m 16,1 km/h (3 Bft) 100,00 %
25.11.2020 10:16 5,2 C 5,6 C 5,0 C 94 % 1017,6 hPa 0,0 l/m 0 min 0 min 46 W/m 6,4 km/h (2 Bft) 100,00 %
25.11.2020 10:18 5,3 C 5,6 C 5,0 C 94 % 1017,7 hPa 0,0 l/m 0 min 0 min 46 W/m 19,3 km/h (3 Bft) 100,00 %
25.11.2020 10:20 5,3 C 5,6 C 5,0 C 94 % 1017,7 hPa 0,0 l/m 0 min 0 min 46 W/m 12,9 km/h (3 Bft) 100,00 %
25.11.2020 10:22 5,3 C 5,6 C 5,0 C 94 % 1017,8 hPa 0,0 l/m 0 min 0 min 46 W/m 16,1 km/h (3 Bft) 100,00 %
25.11.2020 10:24 5,3 C 5,6 C 5,0 C 94 % 1017,8 hPa 0,0 l/m 0 min 0 min 46 W/m 3,2 km/h (1 Bft) 100,00 %
25.11.2020 10:26 5,3 C 5,6 C 5,0 C 94 % 1017,8 hPa 0,0 l/m 0 min 0 min 46 W/m 19,3 km/h (3 Bft) 100,00 %
25.11.2020 10:28 5,4 C 5,6 C 5,0 C 94 % 1017,8 hPa 0,0 l/m 0 min 0 min 46 W/m 16,1 km/h (3 Bft) 100,00 %
25.11.2020 10:30 5,4 C 5,6 C 5,0 C 94 % 1017,8 hPa 0,0 l/m 0 min 0 min 46 W/m 19,3 km/h (3 Bft) 100,00 %
25.11.2020 10:32 5,4 C 5,6 C 5,0 C 94 % 1017,8 hPa 0,0 l/m 0 min 0 min 47 W/m 12,9 km/h (3 Bft) 95,65 %
25.11.2020 10:34 5,5 C 5,6 C 5,0 C 94 % 1017,8 hPa 0,0 l/m 0 min 0 min 49 W/m 16,1 km/h (3 Bft) 100,00 %
25.11.2020 10:36 5,5 C 5,6 C 5,0 C 94 % 1017,9 hPa 0,0 l/m 0 min 0 min 52 W/m 19,3 km/h (3 Bft) 100,00 %
25.11.2020 10:38 5,5 C 5,6 C 5,0 C 94 % 1017,9 hPa 0,0 l/m 0 min 0 min 54 W/m 19,3 km/h (3 Bft) 100,00 %
25.11.2020 10:40 5,6 C 5,6 C 5,0 C 94 % 1017,8 hPa 0,0 l/m 0 min 0 min 56 W/m 16,1 km/h (3 Bft) 100,00 %
25.11.2020 10:42 5,6 C 6,1 C 5,6 C 94 % 1017,8 hPa 0,0 l/m 0 min 0 min 57 W/m 12,9 km/h (3 Bft) 100,00 %
25.11.2020 10:44 5,6 C 6,1 C 5,6 C 94 % 1017,8 hPa 0,0 l/m 0 min 0 min 58 W/m 19,3 km/h (3 Bft) 100,00 %
25.11.2020 10:46 5,7 C 6,1 C 5,6 C 94 % 1017,8 hPa 0,0 l/m 0 min 0 min 60 W/m 12,9 km/h (3 Bft) 100,00 %
25.11.2020 10:48 5,8 C 6,1 C 5,6 C 94 % 1017,8 hPa 0,0 l/m 0 min 0 min 61 W/m 16,1 km/h (3 Bft) 97,83 %
25.11.2020 10:50 5,8 C 6,1 C 5,6 C 93 % 1017,8 hPa 0,0 l/m 0 min 0 min 63 W/m 3,2 km/h (1 Bft) 100,00 %
25.11.2020 10:52 5,8 C 6,1 C 5,6 C 93 % 1017,8 hPa 0,0 l/m 0 min 0 min 64 W/m 16,1 km/h (3 Bft) 97,87 %
25.11.2020 10:54 5,9 C 6,1 C 5,6 C 94 % 1017,8 hPa 0,0 l/m 0 min 0 min 65 W/m 9,7 km/h (2 Bft) 100,00 %
25.11.2020 10:56 5,9 C 6,1 C 5,6 C 93 % 1017,8 hPa 0,0 l/m 0 min 0 min 67 W/m 16,1 km/h (3 Bft) 100,00 %
25.11.2020 10:58 6,0 C 6,1 C 5,6 C 93 % 1017,8 hPa 0,0 l/m 0 min 0 min 68 W/m 19,3 km/h (3 Bft) 100,00 %
25.11.2020 11:00 6,0 C 6,7 C 5,6 C 93 % 1017,8 hPa 0,0 l/m 0 min 0 min 70 W/m 19,3 km/h (3 Bft) 100,00 %
25.11.2020 11:02 6,0 C 6,7 C 6,1 C 93 % 1017,8 hPa 0,0 l/m 0 min 0 min 75 W/m 12,9 km/h (3 Bft) 100,00 %
25.11.2020 11:04 6,1 C 6,7 C 6,1 C 93 % 1017,8 hPa 0,0 l/m 0 min 0 min 95 W/m 16,1 km/h (3 Bft) 100,00 %
25.11.2020 11:06 6,1 C 7,2 C 6,1 C 93 % 1017,8 hPa 0,0 l/m 2 min 0 min 155 W/m 25,7 km/h (4 Bft) 97,87 %
25.11.2020 11:08 6,2 C 7,8 C 6,1 C 93 % 1017,7 hPa 0,0 l/m 2 min 0 min 172 W/m 19,3 km/h (3 Bft) 97,87 %
25.11.2020 11:10 6,3 C 7,8 C 6,1 C 93 % 1017,7 hPa 0,0 l/m 2 min 0 min 188 W/m 22,5 km/h (4 Bft) 93,48 %
25.11.2020 11:12 6,4 C 8,3 C 6,1 C 92 % 1017,7 hPa 0,0 l/m 2 min 0 min 197 W/m 22,5 km/h (4 Bft) 97,87 %
25.11.2020 11:14 6,4 C 8,9 C 6,1 C 93 % 1017,7 hPa 0,0 l/m 2 min 0 min 209 W/m 6,4 km/h (2 Bft) 97,87 %
25.11.2020 11:16 6,4 C 9,4 C 6,1 C 92 % 1017,7 hPa 0,0 l/m 2 min 0 min 206 W/m 6,4 km/h (2 Bft) 97,87 %
25.11.2020 11:18 6,5 C 8,9 C 6,7 C 92 % 1017,8 hPa 0,0 l/m 2 min 0 min 199 W/m 19,3 km/h (3 Bft) 95,74 %
25.11.2020 11:20 6,6 C 8,9 C 6,7 C 92 % 1017,7 hPa 0,0 l/m 2 min 0 min 206 W/m 22,5 km/h (4 Bft) 95,74 %
25.11.2020 11:22 6,6 C 9,4 C 6,7 C 92 % 1017,8 hPa 0,0 l/m 2 min 0 min 222 W/m 12,9 km/h (3 Bft) 95,65 %
25.11.2020 11:24 6,8 C 10,0 C 6,7 C 92 % 1017,7 hPa 0,0 l/m 2 min 0 min 247 W/m 12,9 km/h (3 Bft) 93,62 %
25.11.2020 11:26 6,8 C 10,0 C 7,2 C 92 % 1017,8 hPa 0,0 l/m 2 min 0 min 276 W/m 16,1 km/h (3 Bft) 91,49 %
25.11.2020 11:28 6,9 C 10,6 C 7,2 C 91 % 1017,8 hPa 0,0 l/m 2 min 0 min 295 W/m 19,3 km/h (3 Bft) 93,62 %
25.11.2020 11:30 7,0 C 10,6 C 7,2 C 91 % 1017,8 hPa 0,0 l/m 2 min 0 min 302 W/m 25,7 km/h (4 Bft) 91,49 %
25.11.2020 11:32 7,0 C 11,1 C 7,8 C 91 % 1017,8 hPa 0,0 l/m 2 min 0 min 280 W/m 19,3 km/h (3 Bft) 95,65 %
25.11.2020 11:34 7,1 C 10,6 C 8,4 C 91 % 1017,8 hPa 0,0 l/m 2 min 0 min 222 W/m 12,9 km/h (3 Bft) 93,48 %
25.11.2020 11:36 7,2 C 10,0 C 8,9 C 91 % 1017,8 hPa 0,0 l/m 2 min 0 min 223 W/m 19,3 km/h (3 Bft) 93,62 %
25.11.2020 11:38 7,3 C 9,4 C 8,9 C 90 % 1017,8 hPa 0,0 l/m 2 min 0 min 184 W/m 19,3 km/h (3 Bft) 91,49 %
25.11.2020 11:40 7,4 C 10,0 C 9,5 C 90 % 1017,8 hPa 0,0 l/m 2 min 0 min 231 W/m 19,3 km/h (3 Bft) 91,49 %
25.11.2020 11:42 7,4 C 10,6 C 10,0 C 90 % 1017,7 hPa 0,0 l/m 2 min 0 min 291 W/m 12,9 km/h (3 Bft) 93,62 %
25.11.2020 11:44 7,5 C 10,6 C 10,6 C 89 % 1017,7 hPa 0,0 l/m 2 min 0 min 310 W/m 16,1 km/h (3 Bft) 93,62 %
25.11.2020 11:46 7,5 C 11,1 C 11,1 C 89 % 1017,7 hPa 0,0 l/m 2 min 0 min 319 W/m 22,5 km/h (4 Bft) 93,48 %
25.11.2020 11:48 7,6 C 11,7 C 11,7 C 89 % 1017,7 hPa 0,0 l/m 2 min 0 min 312 W/m 16,1 km/h (3 Bft) 93,62 %
25.11.2020 11:50 7,7 C 11,7 C 11,7 C 89 % 1017,7 hPa 0,0 l/m 2 min 0 min 310 W/m 12,9 km/h (3 Bft) 91,49 %
25.11.2020 11:52 7,8 C 11,7 C 12,2 C 89 % 1017,8 hPa 0,0 l/m 2 min 0 min 299 W/m 19,3 km/h (3 Bft) 93,62 %
25.11.2020 11:54 7,9 C 11,1 C 11,7 C 89 % 1017,6 hPa 0,0 l/m 2 min 0 min 284 W/m 16,1 km/h (3 Bft) 91,49 %
25.11.2020 11:56 8,0 C 11,1 C 11,7 C 88 % 1017,7 hPa 0,0 l/m 2 min 0 min 261 W/m 22,5 km/h (4 Bft) 95,65 %
25.11.2020 11:58 8,0 C 10,6 C 11,1 C 88 % 1017,7 hPa 0,0 l/m 2 min 0 min 251 W/m 19,3 km/h (3 Bft) 95,74 %
25.11.2020 12:00 8,0 C 10,6 C 11,1 C 88 % 1017,7 hPa 0,0 l/m 2 min 0 min 237 W/m 12,9 km/h (3 Bft) 95,74 %
25.11.2020 12:02 8,0 C 10,6 C 10,6 C 87 % 1017,7 hPa 0,0 l/m 2 min 0 min 234 W/m 16,1 km/h (3 Bft) 95,74 %
25.11.2020 12:04 8,1 C 10,6 C 10,6 C 87 % 1017,7 hPa 0,0 l/m 2 min 0 min 237 W/m 19,3 km/h (3 Bft) 95,74 %
25.11.2020 12:08 8,2 C 10,6 C 10,6 C 87 % 1017,7 hPa 0,0 l/m 4 min 0 min 230 W/m 22,5 km/h (4 Bft) 96,81 %
25.11.2020 12:10 8,2 C 10,0 C 10,6 C 87 % 1017,7 hPa 0,0 l/m 2 min 0 min 223 W/m 19,3 km/h (3 Bft) 95,65 %
25.11.2020 12:12 8,3 C 10,6 C 10,6 C 87 % 1017,7 hPa 0,0 l/m 2 min 0 min 222 W/m 12,9 km/h (3 Bft) 97,87 %
25.11.2020 12:14 8,3 C 10,6 C 10,6 C 86 % 1017,7 hPa 0,0 l/m 2 min 0 min 226 W/m 19,3 km/h (3 Bft) 97,87 %
25.11.2020 12:16 8,3 C 11,1 C 10,6 C 86 % 1017,7 hPa 0,0 l/m 2 min 0 min 243 W/m 19,3 km/h (3 Bft) 95,74 %
25.11.2020 12:18 8,3 C 11,1 C 10,6 C 86 % 1017,7 hPa 0,0 l/m 2 min 0 min 267 W/m 22,5 km/h (4 Bft) 97,87 %
25.11.2020 12:20 8,4 C 11,7 C 11,7 C 86 % 1017,7 hPa 0,0 l/m 2 min 0 min 312 W/m 6,4 km/h (2 Bft) 97,83 %
25.11.2020 12:22 8,4 C 11,1 C 11,1 C 86 % 1017,7 hPa 0,0 l/m 2 min 0 min 238 W/m 22,5 km/h (4 Bft) 97,87 %
25.11.2020 12:24 8,4 C 11,1 C 11,1 C 86 % 1017,7 hPa 0,0 l/m 2 min 0 min 237 W/m 16,1 km/h (3 Bft) 97,87 %
25.11.2020 12:26 8,4 C 11,7 C 11,7 C 86 % 1017,7 hPa 0,0 l/m 2 min 0 min 299 W/m 6,4 km/h (2 Bft) 97,87 %
25.11.2020 12:28 8,5 C 11,7 C 11,7 C 86 % 1017,7 hPa 0,0 l/m 2 min 0 min 313 W/m 16,1 km/h (3 Bft) 97,87 %
25.11.2020 12:30 8,5 C 11,7 C 12,2 C 86 % 1017,7 hPa 0,0 l/m 2 min 0 min 327 W/m 22,5 km/h (4 Bft) 97,87 %
25.11.2020 12:32 8,6 C 11,7 C 12,2 C 86 % 1017,7 hPa 0,0 l/m 2 min 0 min 305 W/m 22,5 km/h (4 Bft) 97,83 %
25.11.2020 12:34 8,6 C 11,1 C 11,7 C 85 % 1017,7 hPa 0,0 l/m 2 min 0 min 224 W/m 16,1 km/h (3 Bft) 97,87 %
25.11.2020 12:36 8,6 C 11,7 C 11,1 C 85 % 1017,7 hPa 0,0 l/m 2 min 0 min 258 W/m 16,1 km/h (3 Bft) 96,23 %
25.11.2020 12:38 8,7 C 11,1 C 11,1 C 85 % 1017,7 hPa 0,0 l/m 2 min 0 min 248 W/m 19,3 km/h (3 Bft) 97,92 %
25.11.2020 12:40 8,7 C 10,6 C 10,6 C 85 % 1017,7 hPa 0,0 l/m 2 min 0 min 217 W/m 19,3 km/h (3 Bft) 97,83 %
25.11.2020 12:42 8,7 C 10,6 C 10,6 C 85 % 1017,7 hPa 0,0 l/m 2 min 0 min 208 W/m 16,1 km/h (3 Bft) 97,87 %
25.11.2020 12:44 8,8 C 10,0 C 10,0 C 85 % 1017,7 hPa 0,0 l/m 2 min 0 min 176 W/m 16,1 km/h (3 Bft) 97,87 %
25.11.2020 12:46 8,8 C 10,0 C 9,5 C 85 % 1017,7 hPa 0,0 l/m 0 min 0 min 146 W/m 19,3 km/h (3 Bft) 98,08 %
25.11.2020 12:48 8,7 C 9,4 C 8,9 C 85 % 1017,7 hPa 0,0 l/m 0 min 0 min 134 W/m 25,7 km/h (4 Bft) 97,87 %
25.11.2020 12:50 8,7 C 9,4 C 8,9 C 85 % 1017,7 hPa 0,0 l/m 0 min 0 min 124 W/m 12,9 km/h (3 Bft) 97,83 %
25.11.2020 12:52 8,7 C 9,4 C 8,9 C 85 % 1017,8 hPa 0,0 l/m 0 min 0 min 130 W/m 16,1 km/h (3 Bft) 97,87 %
25.11.2020 12:54 8,7 C 9,4 C 8,9 C 85 % 1017,8 hPa 0,0 l/m 0 min 0 min 113 W/m 12,9 km/h (3 Bft) 95,74 %
25.11.2020 12:56 8,7 C 9,4 C 8,4 C 85 % 1017,7 hPa 0,0 l/m 0 min 0 min 113 W/m 6,4 km/h (2 Bft) 97,87 %
25.11.2020 12:58 8,6 C 8,9 C 8,4 C 85 % 1017,8 hPa 0,0 l/m 0 min 0 min 138 W/m 22,5 km/h (4 Bft) 97,87 %
25.11.2020 13:00 8,6 C 9,4 C 8,9 C 85 % 1017,8 hPa 0,0 l/m 0 min 0 min 150 W/m 19,3 km/h (3 Bft) 97,87 %
25.11.2020 13:02 8,6 C 9,4 C 8,9 C 85 % 1017,8 hPa 0,0 l/m 2 min 0 min 157 W/m 6,4 km/h (2 Bft) 100,00 %
25.11.2020 13:04 8,6 C 10,0 C 8,9 C 85 % 1017,7 hPa 0,0 l/m 2 min 0 min 178 W/m 16,1 km/h (3 Bft) 95,74 %
25.11.2020 13:06 8,6 C 10,6 C 9,5 C 85 % 1017,7 hPa 0,0 l/m 2 min 0 min 212 W/m 6,4 km/h (2 Bft) 97,87 %
25.11.2020 13:08 8,6 C 11,1 C 10,0 C 86 % 1017,7 hPa 0,0 l/m 2 min 0 min 256 W/m 19,3 km/h (3 Bft) 97,92 %
25.11.2020 13:10 8,6 C 11,1 C 10,0 C 86 % 1017,7 hPa 0,0 l/m 2 min 0 min 263 W/m 22,5 km/h (4 Bft) 97,87 %
25.11.2020 13:12 8,7 C 11,7 C 10,6 C 86 % 1017,6 hPa 0,0 l/m 2 min 0 min 269 W/m 6,4 km/h (2 Bft) 100,00 %
25.11.2020 13:14 8,8 C 11,1 C 10,6 C 86 % 1017,7 hPa 0,0 l/m 2 min 0 min 221 W/m 12,9 km/h (3 Bft) 100,00 %
25.11.2020 13:16 8,8 C 10,6 C 10,6 C 86 % 1017,6 hPa 0,0 l/m 2 min 0 min 201 W/m 19,3 km/h (3 Bft) 100,00 %
25.11.2020 13:18 8,8 C 10,6 C 10,6 C 86 % 1017,6 hPa 0,0 l/m 2 min 0 min 208 W/m 6,4 km/h (2 Bft) 100,00 %
25.11.2020 13:20 8,8 C 10,0 C 10,6 C 86 % 1017,6 hPa 0,0 l/m 2 min 0 min 211 W/m 16,1 km/h (3 Bft) 95,74 %
25.11.2020 13:22 8,8 C 10,0 C 10,0 C 85 % 1017,7 hPa 0,0 l/m 2 min 0 min 190 W/m 25,7 km/h (4 Bft) 97,87 %
25.11.2020 13:24 8,9 C 10,6 C 10,6 C 85 % 1017,7 hPa 0,0 l/m 2 min 0 min 229 W/m 19,3 km/h (3 Bft) 97,83 %
25.11.2020 13:26 8,9 C 11,1 C 11,1 C 85 % 1017,7 hPa 0,0 l/m 2 min 0 min 216 W/m 16,1 km/h (3 Bft) 95,74 %
25.11.2020 13:28 8,9 C 10,6 C 10,6 C 85 % 1017,7 hPa 0,0 l/m 2 min 0 min 205 W/m 16,1 km/h (3 Bft) 95,74 %
25.11.2020 13:30 9,0 C 10,6 C 10,6 C 85 % 1017,6 hPa 0,0 l/m 2 min 0 min 194 W/m 25,7 km/h (4 Bft) 95,74 %
25.11.2020 13:32 9,0 C 10,6 C 10,0 C 85 % 1017,7 hPa 0,0 l/m 2 min 0 min 194 W/m 12,9 km/h (3 Bft) 95,74 %
25.11.2020 13:34 9,0 C 10,6 C 10,0 C 85 % 1017,7 hPa 0,0 l/m 2 min 0 min 191 W/m 12,9 km/h (3 Bft) 97,87 %
25.11.2020 13:36 9,0 C 11,1 C 10,0 C 85 % 1017,8 hPa 0,0 l/m 2 min 0 min 234 W/m 12,9 km/h (3 Bft) 97,83 %
25.11.2020 13:38 9,0 C 11,1 C 10,0 C 85 % 1017,7 hPa 0,0 l/m 2 min 0 min 248 W/m 3,2 km/h (1 Bft) 95,74 %
25.11.2020 13:40 9,1 C 11,7 C 10,0 C 85 % 1017,7 hPa 0,0 l/m 2 min 0 min 215 W/m 6,4 km/h (2 Bft) 95,74 %
25.11.2020 13:42 9,1 C 11,1 C 10,0 C 85 % 1017,7 hPa 0,0 l/m 2 min 0 min 217 W/m 12,9 km/h (3 Bft) 97,87 %
25.11.2020 13:44 9,1 C 12,2 C 10,0 C 85 % 1017,7 hPa 0,0 l/m 2 min 0 min 272 W/m 16,1 km/h (3 Bft) 97,87 %
25.11.2020 13:46 9,2 C 12,8 C 10,6 C 85 % 1017,7 hPa 0,0 l/m 2 min 0 min 315 W/m 0,0 km/h (0 Bft) 95,74 %
25.11.2020 13:48 9,3 C 13,3 C 11,7 C 86 % 1017,6 hPa 0,0 l/m 2 min 0 min 324 W/m 3,2 km/h (1 Bft) 95,35 %
25.11.2020 13:50 9,4 C 13,3 C 11,7 C 85 % 1017,6 hPa 0,0 l/m 2 min 0 min 313 W/m 19,3 km/h (3 Bft) 97,87 %
25.11.2020 13:52 9,5 C 13,3 C 11,7 C 85 % 1017,6 hPa 0,0 l/m 2 min 0 min 300 W/m 12,9 km/h (3 Bft) 95,74 %
25.11.2020 13:54 9,5 C 13,3 C 11,7 C 85 % 1017,7 hPa 0,0 l/m 2 min 0 min 300 W/m 12,9 km/h (3 Bft) 95,74 %
25.11.2020 13:56 9,6 C 13,3 C 12,2 C 85 % 1017,7 hPa 0,0 l/m 2 min 0 min 296 W/m 16,1 km/h (3 Bft) 97,87 %
25.11.2020 13:58 9,6 C 13,3 C 12,2 C 85 % 1017,6 hPa 0,0 l/m 2 min 0 min 294 W/m 12,9 km/h (3 Bft) 97,87 %
25.11.2020 14:00 9,7 C 13,3 C 13,4 C 84 % 1017,7 hPa 0,0 l/m 2 min 0 min 297 W/m 16,1 km/h (3 Bft) 97,83 %
25.11.2020 14:02 9,8 C 13,3 C 13,4 C 84 % 1017,7 hPa 0,0 l/m 2 min 0 min 297 W/m 12,9 km/h (3 Bft) 97,92 %
25.11.2020 14:04 9,9 C 13,3 C 13,9 C 84 % 1017,7 hPa 0,0 l/m 2 min 0 min 292 W/m 12,9 km/h (3 Bft) 97,87 %
25.11.2020 14:06 9,9 C 12,8 C 13,4 C 84 % 1017,7 hPa 0,0 l/m 2 min 0 min 279 W/m 16,1 km/h (3 Bft) 97,87 %
25.11.2020 14:08 10,0 C 13,3 C 13,4 C 83 % 1017,7 hPa 0,0 l/m 2 min 0 min 284 W/m 16,1 km/h (3 Bft) 97,87 %
25.11.2020 14:10 10,0 C 12,2 C 12,2 C 83 % 1017,7 hPa 0,0 l/m 2 min 0 min 201 W/m 12,9 km/h (3 Bft) 97,87 %
25.11.2020 14:12 10,0 C 11,1 C 11,1 C 83 % 1017,6 hPa 0,0 l/m 2 min 0 min 128 W/m 12,9 km/h (3 Bft) 97,83 %
25.11.2020 14:14 10,0 C 10,6 C 10,6 C 83 % 1017,7 hPa 0,0 l/m 2 min 0 min 128 W/m 6,4 km/h (2 Bft) 97,87 %
25.11.2020 14:16 10,0 C 10,6 C 10,0 C 83 % 1017,7 hPa 0,0 l/m 2 min 0 min 128 W/m 3,2 km/h (1 Bft) 95,74 %
25.11.2020 14:18 10,0 C 10,0 C 9,5 C 83 % 1017,6 hPa 0,0 l/m 2 min 0 min 121 W/m 16,1 km/h (3 Bft) 97,87 %
25.11.2020 14:20 10,1 C 10,0 C 9,5 C 83 % 1017,6 hPa 0,0 l/m 2 min 0 min 120 W/m 6,4 km/h (2 Bft) 97,87 %
25.11.2020 14:22 10,1 C 10,0 C 9,5 C 83 % 1017,7 hPa 0,0 l/m 2 min 0 min 131 W/m 6,4 km/h (2 Bft) 95,74 %
25.11.2020 14:24 10,0 C 10,0 C 9,5 C 83 % 1017,7 hPa 0,0 l/m 2 min 0 min 121 W/m 6,4 km/h (2 Bft) 100,00 %
25.11.2020 14:26 10,0 C 9,4 C 8,9 C 83 % 1017,6 hPa 0,0 l/m 0 min 0 min 104 W/m 3,2 km/h (1 Bft) 97,87 %
25.11.2020 14:28 10,0 C 10,0 C 8,9 C 83 % 1017,6 hPa 0,0 l/m 0 min 0 min 100 W/m 12,9 km/h (3 Bft) 100,00 %
25.11.2020 14:30 10,0 C 10,0 C 8,9 C 83 % 1017,6 hPa 0,0 l/m 2 min 0 min 111 W/m 6,4 km/h (2 Bft) 100,00 %
25.11.2020 14:32 10,0 C 10,0 C 8,9 C 83 % 1017,6 hPa 0,0 l/m 2 min 0 min 135 W/m 12,9 km/h (3 Bft) 97,87 %
25.11.2020 14:34 10,0 C 10,6 C 8,9 C 83 % 1017,6 hPa 0,0 l/m 2 min 0 min 139 W/m 3,2 km/h (1 Bft) 100,00 %
25.11.2020 14:36 10,0 C 10,6 C 8,9 C 83 % 1017,6 hPa 0,0 l/m 2 min 0 min 133 W/m 6,4 km/h (2 Bft) 100,00 %
25.11.2020 14:38 10,0 C 10,6 C 8,9 C 84 % 1017,6 hPa 0,0 l/m 2 min 0 min 159 W/m 12,9 km/h (3 Bft) 100,00 %
25.11.2020 14:40 10,0 C 10,6 C 8,9 C 84 % 1017,6 hPa 0,0 l/m 2 min 0 min 154 W/m 3,2 km/h (1 Bft) 100,00 %
25.11.2020 14:42 10,0 C 10,6 C 8,9 C 84 % 1017,6 hPa 0,0 l/m 2 min 0 min 118 W/m 3,2 km/h (1 Bft) 95,74 %
25.11.2020 14:44 10,0 C 10,0 C 8,9 C 84 % 1017,5 hPa 0,0 l/m 2 min 0 min 110 W/m 6,4 km/h (2 Bft) 100,00 %
25.11.2020 14:46 10,0 C 10,0 C 8,9 C 84 % 1017,6 hPa 0,0 l/m 2 min 0 min 112 W/m 12,9 km/h (3 Bft) 100,00 %
25.11.2020 14:48 10,0 C 10,0 C 8,9 C 84 % 1017,5 hPa 0,0 l/m 2 min 0 min 102 W/m 6,4 km/h (2 Bft) 100,00 %
25.11.2020 14:50 10,0 C 10,0 C 8,9 C 84 % 1017,6 hPa 0,0 l/m 0 min 0 min 83 W/m 6,4 km/h (2 Bft) 100,00 %
25.11.2020 14:52 10,0 C 10,0 C 8,9 C 84 % 1017,6 hPa 0,0 l/m 0 min 0 min 83 W/m 3,2 km/h (1 Bft) 100,00 %
25.11.2020 14:54 10,0 C 10,0 C 8,9 C 84 % 1017,5 hPa 0,0 l/m 0 min 0 min 86 W/m 6,4 km/h (2 Bft) 100,00 %
25.11.2020 14:56 10,0 C 9,4 C 8,9 C 84 % 1017,5 hPa 0,0 l/m 0 min 0 min 75 W/m 3,2 km/h (1 Bft) 100,00 %
25.11.2020 14:58 9,9 C 9,4 C 8,9 C 84 % 1017,5 hPa 0,0 l/m 0 min 0 min 64 W/m 6,4 km/h (2 Bft) 100,00 %
25.11.2020 15:00 9,9 C 9,4 C 8,4 C 84 % 1017,5 hPa 0,0 l/m 0 min 0 min 68 W/m 3,2 km/h (1 Bft) 97,83 %
25.11.2020 15:02 9,9 C 9,4 C 8,4 C 84 % 1017,4 hPa 0,0 l/m 0 min 0 min 70 W/m 19,3 km/h (3 Bft) 100,00 %
25.11.2020 15:04 9,9 C 9,4 C 8,4 C 83 % 1017,5 hPa 0,0 l/m 0 min 0 min 69 W/m 3,2 km/h (1 Bft) 97,87 %
25.11.2020 15:06 9,9 C 9,4 C 8,4 C 84 % 1017,5 hPa 0,0 l/m 0 min 0 min 62 W/m 3,2 km/h (1 Bft) 100,00 %
25.11.2020 15:08 9,9 C 9,4 C 8,4 C 84 % 1017,4 hPa 0,0 l/m 0 min 0 min 61 W/m 3,2 km/h (1 Bft) 100,00 %
25.11.2020 15:10 9,8 C 9,4 C 8,4 C 84 % 1017,5 hPa 0,0 l/m 0 min 0 min 49 W/m 3,2 km/h (1 Bft) 100,00 %
25.11.2020 15:12 9,8 C 8,9 C 8,4 C 84 % 1017,5 hPa 0,0 l/m 0 min 0 min 44 W/m 3,2 km/h (1 Bft) 97,83 %
25.11.2020 15:14 9,8 C 8,9 C 8,4 C 84 % 1017,5 hPa 0,0 l/m 0 min 0 min 43 W/m 6,4 km/h (2 Bft) 100,00 %
25.11.2020 15:16 9,8 C 9,4 C 8,4 C 84 % 1017,5 hPa 0,0 l/m 0 min 0 min 45 W/m 12,9 km/h (3 Bft) 100,00 %
25.11.2020 15:18 9,8 C 8,9 C 8,4 C 84 % 1017,4 hPa 0,0 l/m 0 min 0 min 45 W/m 6,4 km/h (2 Bft) 100,00 %
25.11.2020 15:20 9,7 C 8,9 C 8,4 C 84 % 1017,5 hPa 0,0 l/m 0 min 0 min 39 W/m 12,9 km/h (3 Bft) 100,00 %
25.11.2020 15:22 9,7 C 8,9 C 8,4 C 84 % 1017,5 hPa 0,0 l/m 0 min 0 min 34 W/m 6,4 km/h (2 Bft) 97,87 %
25.11.2020 15:24 9,6 C 8,9 C 7,8 C 84 % 1017,5 hPa 0,0 l/m 0 min 0 min 29 W/m 16,1 km/h (3 Bft) 100,00 %
25.11.2020 15:26 9,6 C 8,9 C 7,8 C 84 % 1017,5 hPa 0,0 l/m 0 min 0 min 24 W/m 9,7 km/h (2 Bft) 100,00 %
25.11.2020 15:28 9,6 C 8,9 C 7,8 C 84 % 1017,4 hPa 0,0 l/m 0 min 0 min 21 W/m 12,9 km/h (3 Bft) 100,00 %
25.11.2020 15:30 9,6 C 8,9 C 7,8 C 84 % 1017,5 hPa 0,0 l/m 0 min 0 min 19 W/m 6,4 km/h (2 Bft) 100,00 %
25.11.2020 15:32 9,6 C 8,9 C 7,8 C 84 % 1017,4 hPa 0,0 l/m 0 min 0 min 20 W/m 12,9 km/h (3 Bft) 100,00 %
25.11.2020 15:34 9,5 C 8,9 C 7,8 C 84 % 1017,4 hPa 0,0 l/m 0 min 0 min 19 W/m 12,9 km/h (3 Bft) 100,00 %
25.11.2020 15:36 9,5 C 8,9 C 7,8 C 85 % 1017,4 hPa 0,0 l/m 0 min 0 min 18 W/m 16,1 km/h (3 Bft) 100,00 %
25.11.2020 15:38 9,5 C 8,9 C 7,8 C 85 % 1017,5 hPa 0,0 l/m 0 min 0 min 15 W/m 6,4 km/h (2 Bft) 97,87 %
25.11.2020 15:40 9,5 C 8,9 C 7,8 C 85 % 1017,5 hPa 0,0 l/m 0 min 0 min 14 W/m 6,4 km/h (2 Bft) 100,00 %
25.11.2020 15:42 9,5 C 8,9 C 7,8 C 85 % 1017,5 hPa 0,0 l/m 0 min 0 min 14 W/m 6,4 km/h (2 Bft) 95,74 %
25.11.2020 15:44 9,5 C 8,9 C 7,8 C 85 % 1017,5 hPa 0,0 l/m 0 min 0 min 14 W/m 16,1 km/h (3 Bft) 97,87 %
25.11.2020 15:46 9,5 C 8,9 C 7,8 C 85 % 1017,5 hPa 0,0 l/m 0 min 0 min 16 W/m 6,4 km/h (2 Bft) 95,65 %
25.11.2020 15:48 9,5 C 8,9 C 7,8 C 85 % 1017,5 hPa 0,0 l/m 0 min 0 min 16 W/m 22,5 km/h (4 Bft) 95,74 %
25.11.2020 15:50 9,4 C 8,9 C 7,8 C 85 % 1017,5 hPa 0,0 l/m 0 min 0 min 18 W/m 16,1 km/h (3 Bft) 95,74 %
25.11.2020 15:52 9,4 C 8,9 C 7,8 C 85 % 1017,5 hPa 0,0 l/m 0 min 0 min 16 W/m 22,5 km/h (4 Bft) 94,59 %
25.11.2020 15:54 9,4 C 8,9 C 7,8 C 85 % 1017,5 hPa 0,0 l/m 0 min 0 min 16 W/m 16,1 km/h (3 Bft) 93,62 %
25.11.2020 15:56 9,4 C 8,9 C 7,8 C 85 % 1017,5 hPa 0,0 l/m 0 min 0 min 16 W/m 12,9 km/h (3 Bft) 93,62 %
25.11.2020 15:58 9,4 C 8,9 C 7,8 C 85 % 1017,5 hPa 0,0 l/m 0 min 0 min 16 W/m 6,4 km/h (2 Bft) 95,74 %
25.11.2020 16:00 9,4 C 8,9 C 7,8 C 85 % 1017,5 hPa 0,0 l/m 0 min 0 min 16 W/m 16,1 km/h (3 Bft) 93,62 %
25.11.2020 16:02 9,4 C 8,9 C 7,8 C 85 % 1017,4 hPa 0,0 l/m 0 min 0 min 16 W/m 16,1 km/h (3 Bft) 95,65 %
25.11.2020 16:04 9,4 C 8,9 C 7,8 C 85 % 1017,5 hPa 0,0 l/m 0 min 0 min 15 W/m 6,4 km/h (2 Bft) 97,87 %
25.11.2020 16:06 9,4 C 8,9 C 7,8 C 85 % 1017,4 hPa 0,0 l/m 0 min 0 min 13 W/m 12,9 km/h (3 Bft) 94,92 %
25.11.2020 16:08 9,4 C 8,9 C 7,8 C 85 % 1017,4 hPa 0,0 l/m 0 min 0 min 12 W/m 9,7 km/h (2 Bft) 91,43 %
25.11.2020 16:10 9,4 C 8,9 C 7,8 C 85 % 1017,4 hPa 0,0 l/m 0 min 0 min 12 W/m 16,1 km/h (3 Bft) 95,74 %
25.11.2020 16:12 9,4 C 8,9 C 7,8 C 85 % 1017,4 hPa 0,0 l/m 0 min 0 min 11 W/m 12,9 km/h (3 Bft) 95,74 %
25.11.2020 16:14 9,4 C 8,9 C 7,8 C 85 % 1017,4 hPa 0,0 l/m 0 min 0 min 11 W/m 12,9 km/h (3 Bft) 95,65 %
25.11.2020 16:16 9,3 C 8,3 C 7,8 C 85 % 1017,4 hPa 0,0 l/m 0 min 0 min 11 W/m 6,4 km/h (2 Bft) 95,74 %
25.11.2020 16:18 9,3 C 8,3 C 7,8 C 85 % 1017,4 hPa 0,0 l/m 0 min 0 min 11 W/m 6,4 km/h (2 Bft) 95,74 %
25.11.2020 16:20 9,3 C 8,3 C 7,2 C 85 % 1017,4 hPa 0,0 l/m 0 min 0 min 11 W/m 16,1 km/h (3 Bft) 93,62 %
25.11.2020 16:22 9,3 C 8,3 C 7,2 C 85 % 1017,4 hPa 0,0 l/m 0 min 0 min 8 W/m 12,9 km/h (3 Bft) 95,74 %
25.11.2020 16:24 9,3 C 8,3 C 7,2 C 85 % 1017,4 hPa 0,0 l/m 0 min 0 min 7 W/m 6,4 km/h (2 Bft) 93,62 %
25.11.2020 16:26 9,2 C 8,3 C 7,2 C 85 % 1017,4 hPa 0,0 l/m 0 min 0 min 6 W/m 12,9 km/h (3 Bft) 95,65 %
25.11.2020 16:28 9,2 C 8,3 C 7,2 C 86 % 1017,5 hPa 0,0 l/m 0 min 0 min 5 W/m 12,9 km/h (3 Bft) 95,74 %
25.11.2020 16:30 9,1 C 8,3 C 7,2 C 85 % 1017,4 hPa 0,0 l/m 0 min 0 min 3 W/m 19,3 km/h (3 Bft) 95,74 %
25.11.2020 16:32 9,1 C 8,3 C 7,2 C 85 % 1017,4 hPa 0,0 l/m 0 min 0 min 0 W/m 19,3 km/h (3 Bft) 91,49 %
25.11.2020 16:34 9,1 C 8,3 C 7,2 C 86 % 1017,5 hPa 0,0 l/m 0 min 0 min 0 W/m 12,9 km/h (3 Bft) 97,87 %
25.11.2020 16:36 9,0 C 7,8 C 7,2 C 86 % 1017,5 hPa 0,0 l/m 0 min 0 min 0 W/m 12,9 km/h (3 Bft) 97,87 %
25.11.2020 16:38 9,0 C 8,3 C 7,2 C 86 % 1017,5 hPa 0,0 l/m 0 min 0 min 0 W/m 16,1 km/h (3 Bft) 97,83 %
25.11.2020 16:40 9,0 C 7,8 C 7,2 C 86 % 1017,6 hPa 0,0 l/m 0 min 0 min 0 W/m 6,4 km/h (2 Bft) 100,00 %
25.11.2020 16:42 9,0 C 7,8 C 6,7 C 86 % 1017,6 hPa 0,0 l/m 0 min 0 min 0 W/m 12,9 km/h (3 Bft) 97,87 %
25.11.2020 16:44 8,9 C 7,8 C 6,7 C 86 % 1017,6 hPa 0,0 l/m 0 min 0 min 0 W/m 6,4 km/h (2 Bft) 100,00 %
25.11.2020 16:46 8,9 C 7,8 C 6,7 C 86 % 1017,6 hPa 0,0 l/m 0 min 0 min 0 W/m 6,4 km/h (2 Bft) 100,00 %
25.11.2020 16:48 8,8 C 7,8 C 6,7 C 86 % 1017,6 hPa 0,0 l/m 0 min 0 min 0 W/m 9,7 km/h (2 Bft) 100,00 %
25.11.2020 16:50 8,8 C 7,8 C 6,7 C 86 % 1017,6 hPa 0,0 l/m 0 min 0 min 0 W/m 6,4 km/h (2 Bft) 100,00 %
25.11.2020 16:52 8,8 C 7,8 C 6,7 C 86 % 1017,6 hPa 0,0 l/m 0 min 0 min 0 W/m 6,4 km/h (2 Bft) 100,00 %
25.11.2020 16:54 8,8 C 7,8 C 6,7 C 87 % 1017,6 hPa 0,0 l/m 0 min 0 min 0 W/m 12,9 km/h (3 Bft) 98,31 %
25.11.2020 16:56 8,7 C 7,8 C 6,7 C 87 % 1017,6 hPa 0,0 l/m 0 min 0 min 0 W/m 9,7 km/h (2 Bft) 95,65 %
25.11.2020 16:58 8,7 C 7,8 C 6,7 C 87 % 1017,6 hPa 0,0 l/m 0 min 0 min 0 W/m 6,4 km/h (2 Bft) 97,87 %
25.11.2020 17:00 8,6 C 7,8 C 6,7 C 87 % 1017,6 hPa 0,0 l/m 0 min 0 min 0 W/m 12,9 km/h (3 Bft) 97,87 %
25.11.2020 17:02 8,6 C 7,8 C 6,7 C 87 % 1017,6 hPa 0,0 l/m 0 min 0 min 0 W/m 12,9 km/h (3 Bft) 97,87 %
25.11.2020 17:04 8,6 C 7,8 C 6,7 C 87 % 1017,6 hPa 0,0 l/m 0 min 0 min 0 W/m 16,1 km/h (3 Bft) 95,74 %
25.11.2020 17:06 8,5 C 7,8 C 6,7 C 87 % 1017,6 hPa 0,0 l/m 0 min 0 min 0 W/m 16,1 km/h (3 Bft) 97,87 %
25.11.2020 17:08 8,5 C 7,8 C 6,7 C 87 % 1017,6 hPa 0,0 l/m 0 min 0 min 0 W/m 9,7 km/h (2 Bft) 97,83 %
25.11.2020 17:10 8,5 C 7,2 C 6,7 C 88 % 1017,5 hPa 0,0 l/m 0 min 0 min 0 W/m 12,9 km/h (3 Bft) 97,87 %
25.11.2020 17:12 8,4 C 7,2 C 6,7 C 88 % 1017,6 hPa 0,0 l/m 0 min 0 min 0 W/m 6,4 km/h (2 Bft) 97,87 %
25.11.2020 17:14 8,4 C 7,2 C 6,1 C 88 % 1017,6 hPa 0,0 l/m 0 min 0 min 0 W/m 12,9 km/h (3 Bft) 97,87 %
25.11.2020 17:16 8,4 C 7,2 C 6,1 C 88 % 1017,6 hPa 0,0 l/m 0 min 0 min 0 W/m 16,1 km/h (3 Bft) 97,87 %
25.11.2020 17:18 8,3 C 7,2 C 6,7 C 88 % 1017,6 hPa 0,0 l/m 0 min 0 min 0 W/m 12,9 km/h (3 Bft) 95,74 %
25.11.2020 17:20 8,3 C 7,2 C 6,1 C 88 % 1017,6 hPa 0,0 l/m 0 min 0 min 0 W/m 12,9 km/h (3 Bft) 97,83 %
25.11.2020 17:22 8,3 C 7,2 C 6,1 C 88 % 1017,6 hPa 0,0 l/m 0 min 0 min 0 W/m 6,4 km/h (2 Bft) 95,74 %
25.11.2020 17:24 8,3 C 7,2 C 6,1 C 88 % 1017,6 hPa 0,0 l/m 0 min 0 min 0 W/m 16,1 km/h (3 Bft) 97,87 %
25.11.2020 17:26 8,2 C 7,2 C 6,1 C 88 % 1017,6 hPa 0,0 l/m 0 min 0 min 0 W/m 3,2 km/h (1 Bft) 97,87 %
25.11.2020 17:28 8,1 C 7,2 C 6,1 C 89 % 1017,7 hPa 0,0 l/m 0 min 0 min 0 W/m 16,1 km/h (3 Bft) 97,87 %
25.11.2020 17:30 8,1 C 7,2 C 6,1 C 88 % 1017,6 hPa 0,0 l/m 0 min 0 min 0 W/m 0,0 km/h (0 Bft) 97,87 %
25.11.2020 17:32 8,1 C 7,2 C 6,1 C 89 % 1017,6 hPa 0,0 l/m 0 min 0 min 0 W/m 3,2 km/h (1 Bft) 97,83 %
25.11.2020 17:34 8,1 C 7,2 C 6,1 C 89 % 1017,6 hPa 0,0 l/m 0 min 0 min 0 W/m 12,9 km/h (3 Bft) 97,87 %
25.11.2020 17:36 8,0 C 7,2 C 6,1 C 89 % 1017,6 hPa 0,0 l/m 0 min 0 min 0 W/m 3,2 km/h (1 Bft) 97,87 %
25.11.2020 17:38 8,0 C 7,2 C 6,1 C 89 % 1017,6 hPa 0,0 l/m 0 min 0 min 0 W/m 12,9 km/h (3 Bft) 97,87 %
25.11.2020 17:40 8,0 C 7,2 C 6,1 C 89 % 1017,7 hPa 0,0 l/m 0 min 0 min 0 W/m 12,9 km/h (3 Bft) 97,87 %
25.11.2020 17:42 8,0 C 7,2 C 6,1 C 89 % 1017,7 hPa 0,0 l/m 0 min 0 min 0 W/m 12,9 km/h (3 Bft) 95,65 %
25.11.2020 17:44 7,9 C 7,2 C 6,1 C 89 % 1017,7 hPa 0,0 l/m 0 min 0 min 0 W/m 16,1 km/h (3 Bft) 95,74 %
25.11.2020 17:46 7,9 C 7,2 C 6,1 C 89 % 1017,7 hPa 0,0 l/m 0 min 0 min 0 W/m 6,4 km/h (2 Bft) 97,87 %
25.11.2020 17:48 7,9 C 7,2 C 6,1 C 89 % 1017,7 hPa 0,0 l/m 0 min 0 min 0 W/m 9,7 km/h (2 Bft) 97,14 %
25.11.2020 17:50 7,9 C 7,2 C 6,1 C 89 % 1017,7 hPa 0,0 l/m 0 min 0 min 0 W/m 16,1 km/h (3 Bft) 94,92 %
25.11.2020 17:52 7,9 C 7,2 C 6,1 C 89 % 1017,7 hPa 0,0 l/m 0 min 0 min 0 W/m 12,9 km/h (3 Bft) 97,87 %
25.11.2020 17:54 7,8 C 7,2 C 6,1 C 90 % 1017,8 hPa 0,0 l/m 0 min 0 min 0 W/m 19,3 km/h (3 Bft) 95,65 %
25.11.2020 17:56 7,8 C 6,7 C 6,1 C 90 % 1017,8 hPa 0,0 l/m 0 min 0 min 0 W/m 3,2 km/h (1 Bft) 97,87 %
25.11.2020 17:58 7,8 C 6,7 C 6,1 C 90 % 1017,8 hPa 0,0 l/m 0 min 0 min 0 W/m 12,9 km/h (3 Bft) 97,87 %
25.11.2020 18:00 7,8 C 7,2 C 6,1 C 90 % 1017,8 hPa 0,0 l/m 0 min 0 min 0 W/m 9,7 km/h (2 Bft) 97,87 %
25.11.2020 18:02 7,8 C 7,2 C 6,1 C 90 % 1017,9 hPa 0,0 l/m 0 min 0 min 0 W/m 6,4 km/h (2 Bft) 95,74 %
25.11.2020 18:04 7,7 C 7,2 C 6,1 C 90 % 1017,8 hPa 0,0 l/m 0 min 0 min 0 W/m 6,4 km/h (2 Bft) 97,87 %
25.11.2020 18:08 7,7 C 7,2 C 6,1 C 90 % 1017,9 hPa 0,0 l/m 0 min 0 min 0 W/m 3,2 km/h (1 Bft) 98,92 %
25.11.2020 18:10 7,7 C 7,2 C 6,1 C 90 % 1017,9 hPa 0,0 l/m 0 min 0 min 0 W/m 6,4 km/h (2 Bft) 100,00 %
25.11.2020 18:12 7,6 C 7,2 C 6,1 C 90 % 1017,9 hPa 0,0 l/m 0 min 0 min 0 W/m 6,4 km/h (2 Bft) 100,00 %
25.11.2020 18:14 7,6 C 7,2 C 6,1 C 90 % 1017,9 hPa 0,0 l/m 0 min 0 min 0 W/m 12,9 km/h (3 Bft) 97,87 %
25.11.2020 18:16 7,6 C 7,2 C 6,1 C 90 % 1018,0 hPa 0,0 l/m 0 min 0 min 0 W/m 3,2 km/h (1 Bft) 97,87 %
25.11.2020 18:18 7,6 C 7,2 C 6,1 C 90 % 1018,0 hPa 0,0 l/m 0 min 0 min 0 W/m 3,2 km/h (1 Bft) 100,00 %
25.11.2020 18:20 7,6 C 7,2 C 6,1 C 90 % 1018,1 hPa 0,0 l/m 0 min 0 min 0 W/m 12,9 km/h (3 Bft) 100,00 %
25.11.2020 18:22 7,6 C 7,2 C 6,1 C 90 % 1018,1 hPa 0,0 l/m 0 min 0 min 0 W/m 12,9 km/h (3 Bft) 100,00 %
25.11.2020 18:24 7,6 C 7,2 C 6,1 C 91 % 1018,1 hPa 0,0 l/m 0 min 0 min 0 W/m 6,4 km/h (2 Bft) 97,87 %
25.11.2020 18:26 7,6 C 7,2 C 6,1 C 91 % 1018,1 hPa 0,0 l/m 0 min 0 min 0 W/m 6,4 km/h (2 Bft) 95,74 %
25.11.2020 18:28 7,6 C 7,2 C 6,1 C 91 % 1018,1 hPa 0,0 l/m 0 min 0 min 0 W/m 16,1 km/h (3 Bft) 100,00 %
25.11.2020 18:30 7,6 C 7,2 C 6,1 C 91 % 1018,0 hPa 0,0 l/m 0 min 0 min 0 W/m 6,4 km/h (2 Bft) 97,83 %
25.11.2020 18:32 7,6 C 7,2 C 6,1 C 91 % 1018,0 hPa 0,0 l/m 0 min 0 min 0 W/m 6,4 km/h (2 Bft) 95,74 %
25.11.2020 18:34 7,6 C 7,2 C 6,1 C 91 % 1018,0 hPa 0,0 l/m 0 min 0 min 0 W/m 16,1 km/h (3 Bft) 97,87 %
25.11.2020 18:36 7,6 C 7,2 C 6,1 C 91 % 1018,1 hPa 0,0 l/m 0 min 0 min 0 W/m 12,9 km/h (3 Bft) 95,74 %
25.11.2020 18:38 7,6 C 6,7 C 6,1 C 91 % 1018,0 hPa 0,0 l/m 0 min 0 min 0 W/m 9,7 km/h (2 Bft) 93,62 %
25.11.2020 18:40 7,6 C 6,7 C 6,1 C 91 % 1018,1 hPa 0,0 l/m 0 min 0 min 0 W/m 6,4 km/h (2 Bft) 95,74 %
25.11.2020 18:42 7,6 C 6,7 C 6,1 C 91 % 1018,0 hPa 0,0 l/m 0 min 0 min 0 W/m 19,3 km/h (3 Bft) 95,65 %
25.11.2020 18:44 7,5 C 6,7 C 6,1 C 91 % 1018,1 hPa 0,0 l/m 0 min 0 min 0 W/m 6,4 km/h (2 Bft) 95,74 %
25.11.2020 18:46 7,5 C 6,7 C 6,1 C 91 % 1018,1 hPa 0,0 l/m 0 min 0 min 0 W/m 6,4 km/h (2 Bft) 93,62 %
25.11.2020 18:48 7,5 C 6,7 C 5,6 C 91 % 1018,2 hPa 0,0 l/m 0 min 0 min 0 W/m 6,4 km/h (2 Bft) 95,74 %
25.11.2020 18:50 7,5 C 6,7 C 5,6 C 91 % 1018,2 hPa 0,0 l/m 0 min 0 min 0 W/m 12,9 km/h (3 Bft) 91,49 %
25.11.2020 18:52 7,5 C 6,7 C 5,6 C 91 % 1018,2 hPa 0,0 l/m 0 min 0 min 0 W/m 6,4 km/h (2 Bft) 93,48 %
25.11.2020 18:54 7,5 C 6,7 C 5,6 C 91 % 1018,2 hPa 0,0 l/m 0 min 0 min 0 W/m 6,4 km/h (2 Bft) 93,62 %
25.11.2020 18:56 7,5 C 6,7 C 5,6 C 91 % 1018,3 hPa 0,0 l/m 0 min 0 min 0 W/m 6,4 km/h (2 Bft) 95,74 %
25.11.2020 18:58 7,4 C 6,7 C 5,6 C 91 % 1018,3 hPa 0,0 l/m 0 min 0 min 0 W/m 0,0 km/h (0 Bft) 95,56 %
25.11.2020 19:00 7,4 C 6,7 C 5,6 C 91 % 1018,3 hPa 0,0 l/m 0 min 0 min 0 W/m 12,9 km/h (3 Bft) 95,74 %
25.11.2020 19:02 7,4 C 6,7 C 5,6 C 90 % 1018,3 hPa 0,0 l/m 0 min 0 min 0 W/m 3,2 km/h (1 Bft) 95,74 %
25.11.2020 19:04 7,4 C 6,7 C 5,6 C 90 % 1018,4 hPa 0,0 l/m 0 min 0 min 0 W/m 6,4 km/h (2 Bft) 95,65 %
25.11.2020 19:06 7,4 C 6,7 C 5,6 C 90 % 1018,4 hPa 0,0 l/m 0 min 0 min 0 W/m 0,0 km/h (0 Bft) 95,74 %
25.11.2020 19:08 7,4 C 6,7 C 5,6 C 90 % 1018,4 hPa 0,0 l/m 0 min 0 min 0 W/m 0,0 km/h (0 Bft) 97,87 %
25.11.2020 19:10 7,4 C 6,7 C 5,6 C 90 % 1018,5 hPa 0,0 l/m 0 min 0 min 0 W/m 0,0 km/h (0 Bft) 93,62 %
25.11.2020 19:12 7,3 C 6,7 C 5,6 C 90 % 1018,5 hPa 0,0 l/m 0 min 0 min 0 W/m 0,0 km/h (0 Bft) 97,87 %
25.11.2020 19:14 7,3 C 6,7 C 5,6 C 91 % 1018,5 hPa 0,0 l/m 0 min 0 min 0 W/m 9,7 km/h (2 Bft) 97,87 %
25.11.2020 19:16 7,3 C 6,7 C 5,6 C 91 % 1018,5 hPa 0,0 l/m 0 min 0 min 0 W/m 6,4 km/h (2 Bft) 97,83 %
25.11.2020 19:18 7,3 C 6,7 C 5,6 C 91 % 1018,5 hPa 0,0 l/m 0 min 0 min 0 W/m 3,2 km/h (1 Bft) 93,62 %
25.11.2020 19:20 7,3 C 6,7 C 5,6 C 91 % 1018,5 hPa 0,0 l/m 0 min 0 min 0 W/m 6,4 km/h (2 Bft) 97,87 %
25.11.2020 19:22 7,3 C 6,7 C 5,6 C 91 % 1018,5 hPa 0,0 l/m 0 min 0 min 0 W/m 6,4 km/h (2 Bft) 97,87 %
25.11.2020 19:24 7,3 C 6,7 C 5,6 C 91 % 1018,6 hPa 0,0 l/m 0 min 0 min 0 W/m 3,2 km/h (1 Bft) 97,87 %
25.11.2020 19:26 7,3 C 6,7 C 5,6 C 91 % 1018,5 hPa 0,0 l/m 0 min 0 min 0 W/m 0,0 km/h (0 Bft) 97,87 %
25.11.2020 19:28 7,3 C 6,7 C 5,6 C 91 % 1018,6 hPa 0,0 l/m 0 min 0 min 0 W/m 3,2 km/h (1 Bft) 100,00 %
25.11.2020 19:30 7,3 C 6,7 C 5,6 C 91 % 1018,6 hPa 0,0 l/m 0 min 0 min 0 W/m 3,2 km/h (1 Bft) 100,00 %
25.11.2020 19:32 7,3 C 6,7 C 5,6 C 91 % 1018,6 hPa 0,0 l/m 0 min 0 min 0 W/m 3,2 km/h (1 Bft) 95,74 %
25.11.2020 19:34 7,3 C 6,7 C 5,6 C 91 % 1018,6 hPa 0,0 l/m 0 min 0 min 0 W/m 3,2 km/h (1 Bft) 100,00 %
25.11.2020 19:36 7,3 C 6,7 C 5,6 C 91 % 1018,6 hPa 0,0 l/m 0 min 0 min 0 W/m 6,4 km/h (2 Bft) 100,00 %
25.11.2020 19:38 7,3 C 6,7 C 5,6 C 91 % 1018,6 hPa 0,0 l/m 0 min 0 min 0 W/m 6,4 km/h (2 Bft) 100,00 %
25.11.2020 19:40 7,3 C 6,7 C 5,6 C 91 % 1018,6 hPa 0,0 l/m 0 min 0 min 0 W/m 0,0 km/h (0 Bft) 100,00 %
25.11.2020 19:42 7,3 C 6,7 C 5,6 C 91 % 1018,6 hPa 0,0 l/m 0 min 0 min 0 W/m 0,0 km/h (0 Bft) 100,00 %
25.11.2020 19:44 7,3 C 6,7 C 5,6 C 91 % 1018,7 hPa 0,0 l/m 0 min 0 min 0 W/m 0,0 km/h (0 Bft) 100,00 %
25.11.2020 19:46 7,3 C 6,7 C 5,6 C 91 % 1018,7 hPa 0,0 l/m 0 min 0 min 0 W/m 3,2 km/h (1 Bft) 100,00 %
25.11.2020 19:48 7,3 C 6,7 C 5,6 C 91 % 1018,7 hPa 0,0 l/m 0 min 0 min 0 W/m 3,2 km/h (1 Bft) 100,00 %
25.11.2020 19:50 7,3 C 6,7 C 5,6 C 91 % 1018,7 hPa 0,0 l/m 0 min 0 min 0 W/m 12,9 km/h (3 Bft) 100,00 %
25.11.2020 19:52 7,3 C 6,7 C 5,6 C 91 % 1018,7 hPa 0,0 l/m 0 min 0 min 0 W/m 0,0 km/h (0 Bft) 100,00 %
25.11.2020 19:54 7,3 C 6,7 C 6,1 C 91 % 1018,7 hPa 0,0 l/m 0 min 0 min 0 W/m 0,0 km/h (0 Bft) 100,00 %
25.11.2020 19:56 7,3 C 6,7 C 6,1 C 91 % 1018,8 hPa 0,0 l/m 0 min 0 min 0 W/m 0,0 km/h (0 Bft) 100,00 %
25.11.2020 19:58 7,3 C 6,7 C 6,1 C 91 % 1018,8 hPa 0,0 l/m 0 min 0 min 0 W/m 3,2 km/h (1 Bft) 100,00 %
25.11.2020 20:00 7,3 C 6,7 C 6,1 C 91 % 1018,8 hPa 0,0 l/m 0 min 0 min 0 W/m 0,0 km/h (0 Bft) 97,67 %
25.11.2020 20:02 7,3 C 6,7 C 6,1 C 91 % 1018,8 hPa 0,0 l/m 0 min 0 min 0 W/m 6,4 km/h (2 Bft) 97,83 %
25.11.2020 20:04 7,3 C 6,7 C 6,1 C 91 % 1018,8 hPa 0,0 l/m 0 min 0 min 0 W/m 3,2 km/h (1 Bft) 100,00 %
25.11.2020 20:06 7,2 C 6,7 C 6,1 C 91 % 1018,8 hPa 0,0 l/m 0 min 0 min 0 W/m 3,2 km/h (1 Bft) 100,00 %
25.11.2020 20:08 7,2 C 6,7 C 6,1 C 91 % 1018,8 hPa 0,0 l/m 0 min 0 min 0 W/m 0,0 km/h (0 Bft) 97,87 %
25.11.2020 20:10 7,2 C 6,7 C 6,1 C 91 % 1018,8 hPa 0,0 l/m 0 min 0 min 0 W/m 6,4 km/h (2 Bft) 100,00 %
25.11.2020 20:12 7,2 C 6,7 C 6,1 C 91 % 1018,8 hPa 0,0 l/m 0 min 0 min 0 W/m 0,0 km/h (0 Bft) 100,00 %
25.11.2020 20:14 7,3 C 6,7 C 6,1 C 91 % 1018,8 hPa 0,0 l/m 0 min 0 min 0 W/m 0,0 km/h (0 Bft) 100,00 %
25.11.2020 20:16 7,2 C 6,7 C 6,1 C 91 % 1018,8 hPa 0,0 l/m 0 min 0 min 0 W/m 3,2 km/h (1 Bft) 100,00 %
25.11.2020 20:18 7,2 C 6,7 C 6,1 C 91 % 1018,8 hPa 0,0 l/m 0 min 0 min 0 W/m 6,4 km/h (2 Bft) 100,00 %
25.11.2020 20:20 7,2 C 6,7 C 6,1 C 91 % 1018,8 hPa 0,0 l/m 0 min 0 min 0 W/m 9,7 km/h (2 Bft) 100,00 %
25.11.2020 20:22 7,2 C 6,7 C 6,1 C 91 % 1018,9 hPa 0,0 l/m 0 min 0 min 0 W/m 6,4 km/h (2 Bft) 97,87 %
25.11.2020 20:24 7,2 C 6,7 C 6,1 C 91 % 1018,8 hPa 0,0 l/m 0 min 0 min 0 W/m 6,4 km/h (2 Bft) 97,87 %
25.11.2020 20:26 7,2 C 6,7 C 6,1 C 91 % 1018,8 hPa 0,0 l/m 0 min 0 min 0 W/m 3,2 km/h (1 Bft) 97,83 %
25.11.2020 20:28 7,2 C 6,7 C 6,1 C 91 % 1018,9 hPa 0,0 l/m 0 min 0 min 0 W/m 3,2 km/h (1 Bft) 100,00 %
25.11.2020 20:30 7,2 C 6,7 C 6,1 C 91 % 1018,9 hPa 0,0 l/m 0 min 0 min 0 W/m 0,0 km/h (0 Bft) 97,87 %
25.11.2020 20:32 7,2 C 6,7 C 6,1 C 91 % 1018,9 hPa 0,0 l/m 0 min 0 min 0 W/m 6,4 km/h (2 Bft) 100,00 %
25.11.2020 20:34 7,2 C 6,7 C 6,1 C 91 % 1018,9 hPa 0,0 l/m 0 min 0 min 0 W/m 3,2 km/h (1 Bft) 100,00 %
25.11.2020 20:36 7,2 C 6,7 C 6,1 C 91 % 1018,9 hPa 0,0 l/m 0 min 0 min 0 W/m 9,7 km/h (2 Bft) 100,00 %
25.11.2020 20:38 7,2 C 6,7 C 6,1 C 91 % 1018,9 hPa 0,0 l/m 0 min 0 min 0 W/m 3,2 km/h (1 Bft) 97,83 %
25.11.2020 20:40 7,2 C 6,7 C 6,1 C 91 % 1018,9 hPa 0,0 l/m 0 min 0 min 0 W/m 3,2 km/h (1 Bft) 100,00 %
25.11.2020 20:42 7,2 C 6,7 C 6,1 C 91 % 1018,9 hPa 0,0 l/m 0 min 0 min 0 W/m 6,4 km/h (2 Bft) 100,00 %
25.11.2020 20:44 7,2 C 6,7 C 6,1 C 91 % 1018,9 hPa 0,0 l/m 0 min 0 min 0 W/m 12,9 km/h (3 Bft) 100,00 %
25.11.2020 20:46 7,2 C 6,7 C 6,1 C 91 % 1018,9 hPa 0,0 l/m 0 min 0 min 0 W/m 12,9 km/h (3 Bft) 100,00 %
25.11.2020 20:48 7,2 C 6,7 C 6,1 C 91 % 1018,9 hPa 0,0 l/m 0 min 0 min 0 W/m 6,4 km/h (2 Bft) 100,00 %
25.11.2020 20:50 7,2 C 6,7 C 6,1 C 91 % 1018,9 hPa 0,0 l/m 0 min 0 min 0 W/m 3,2 km/h (1 Bft) 100,00 %
25.11.2020 20:52 7,2 C 6,7 C 6,1 C 91 % 1018,8 hPa 0,0 l/m 0 min 0 min 0 W/m 3,2 km/h (1 Bft) 97,87 %
25.11.2020 20:54 7,2 C 6,7 C 6,1 C 91 % 1018,9 hPa 0,0 l/m 0 min 0 min 0 W/m 0,0 km/h (0 Bft) 97,87 %
25.11.2020 20:56 7,2 C 6,7 C 6,1 C 91 % 1018,9 hPa 0,0 l/m 0 min 0 min 0 W/m 6,4 km/h (2 Bft) 100,00 %
25.11.2020 20:58 7,2 C 6,7 C 6,1 C 91 % 1018,9 hPa 0,0 l/m 0 min 0 min 0 W/m 9,7 km/h (2 Bft) 100,00 %
25.11.2020 21:00 7,2 C 6,7 C 6,1 C 91 % 1018,9 hPa 0,0 l/m 0 min 0 min 0 W/m 12,9 km/h (3 Bft) 97,87 %
25.11.2020 21:02 7,2 C 6,7 C 6,1 C 91 % 1018,9 hPa 0,0 l/m 0 min 0 min 0 W/m 6,4 km/h (2 Bft) 96,08 %
25.11.2020 21:04 7,2 C 6,7 C 6,1 C 91 % 1018,9 hPa 0,0 l/m 0 min 0 min 0 W/m 6,4 km/h (2 Bft) 95,74 %
25.11.2020 21:06 7,1 C 6,7 C 5,6 C 91 % 1019,0 hPa 0,0 l/m 0 min 0 min 0 W/m 3,2 km/h (1 Bft) 95,74 %
25.11.2020 21:08 7,1 C 6,7 C 5,6 C 91 % 1019,0 hPa 0,0 l/m 0 min 0 min 0 W/m 3,2 km/h (1 Bft) 95,74 %
25.11.2020 21:10 7,1 C 6,7 C 5,6 C 91 % 1019,0 hPa 0,0 l/m 0 min 0 min 0 W/m 0,0 km/h (0 Bft) 95,74 %
25.11.2020 21:12 7,1 C 6,7 C 5,6 C 91 % 1019,0 hPa 0,0 l/m 0 min 0 min 0 W/m 0,0 km/h (0 Bft) 95,65 %
25.11.2020 21:14 7,1 C 6,7 C 5,6 C 91 % 1019,0 hPa 0,0 l/m 0 min 0 min 0 W/m 0,0 km/h (0 Bft) 95,74 %
25.11.2020 21:16 7,1 C 6,7 C 5,6 C 91 % 1019,0 hPa 0,0 l/m 0 min 0 min 0 W/m 0,0 km/h (0 Bft) 95,74 %
25.11.2020 21:18 7,1 C 6,7 C 5,6 C 91 % 1019,0 hPa 0,0 l/m 0 min 0 min 0 W/m 0,0 km/h (0 Bft) 95,74 %
25.11.2020 21:20 7,1 C 6,7 C 5,6 C 91 % 1019,1 hPa 0,0 l/m 0 min 0 min 0 W/m 0,0 km/h (0 Bft) 93,62 %
25.11.2020 21:22 7,1 C 6,7 C 5,6 C 91 % 1019,1 hPa 0,0 l/m 0 min 0 min 0 W/m 3,2 km/h (1 Bft) 93,62 %
25.11.2020 21:24 7,1 C 6,7 C 5,6 C 91 % 1019,1 hPa 0,0 l/m 0 min 0 min 0 W/m 3,2 km/h (1 Bft) 93,48 %
25.11.2020 21:26 7,1 C 6,7 C 5,6 C 91 % 1019,1 hPa 0,0 l/m 0 min 0 min 0 W/m 3,2 km/h (1 Bft) 97,87 %
25.11.2020 21:28 7,1 C 6,7 C 5,6 C 91 % 1019,1 hPa 0,0 l/m 0 min 0 min 0 W/m 0,0 km/h (0 Bft) 91,49 %
25.11.2020 21:30 7,1 C 6,7 C 5,6 C 91 % 1019,1 hPa 0,0 l/m 0 min 0 min 0 W/m 3,2 km/h (1 Bft) 95,74 %
25.11.2020 21:32 7,1 C 6,7 C 5,6 C 91 % 1019,1 hPa 0,0 l/m 0 min 0 min 0 W/m 3,2 km/h (1 Bft) 93,62 %
25.11.2020 21:34 7,1 C 6,7 C 5,6 C 91 % 1019,1 hPa 0,0 l/m 0 min 0 min 0 W/m 6,4 km/h (2 Bft) 93,62 %
25.11.2020 21:36 7,1 C 6,7 C 5,6 C 91 % 1019,1 hPa 0,0 l/m 0 min 0 min 0 W/m 0,0 km/h (0 Bft) 91,30 %
25.11.2020 21:38 7,1 C 6,7 C 5,6 C 91 % 1019,0 hPa 0,0 l/m 0 min 0 min 0 W/m 3,2 km/h (1 Bft) 93,62 %
25.11.2020 21:40 7,1 C 6,7 C 5,6 C 91 % 1019,0 hPa 0,0 l/m 0 min 0 min 0 W/m 6,4 km/h (2 Bft) 93,62 %
25.11.2020 21:42 7,0 C 6,1 C 5,6 C 91 % 1019,0 hPa 0,0 l/m 0 min 0 min 0 W/m 3,2 km/h (1 Bft) 93,62 %
25.11.2020 21:44 7,0 C 6,1 C 5,6 C 91 % 1019,0 hPa 0,0 l/m 0 min 0 min 0 W/m 0,0 km/h (0 Bft) 91,49 %
25.11.2020 21:46 7,0 C 6,1 C 5,6 C 91 % 1019,1 hPa 0,0 l/m 0 min 0 min 0 W/m 3,2 km/h (1 Bft) 93,62 %
25.11.2020 21:48 7,0 C 6,1 C 5,6 C 91 % 1019,2 hPa 0,0 l/m 0 min 0 min 0 W/m 3,2 km/h (1 Bft) 95,65 %
25.11.2020 21:50 7,0 C 6,1 C 5,6 C 91 % 1019,2 hPa 0,0 l/m 0 min 0 min 0 W/m 0,0 km/h (0 Bft) 95,74 %
25.11.2020 21:52 7,0 C 6,7 C 5,6 C 91 % 1019,2 hPa 0,0 l/m 0 min 0 min 0 W/m 6,4 km/h (2 Bft) 95,74 %
25.11.2020 21:54 7,0 C 6,7 C 5,6 C 91 % 1019,2 hPa 0,0 l/m 0 min 0 min 0 W/m 0,0 km/h (0 Bft) 93,62 %
25.11.2020 21:56 7,0 C 6,7 C 5,6 C 91 % 1019,2 hPa 0,0 l/m 0 min 0 min 0 W/m 0,0 km/h (0 Bft) 93,62 %
25.11.2020 21:58 7,0 C 6,1 C 5,6 C 91 % 1019,2 hPa 0,0 l/m 0 min 0 min 0 W/m 6,4 km/h (2 Bft) 95,74 %
25.11.2020 22:00 7,0 C 6,1 C 5,6 C 91 % 1019,2 hPa 0,0 l/m 0 min 0 min 0 W/m 3,2 km/h (1 Bft) 95,65 %
25.11.2020 22:02 7,0 C 6,1 C 5,6 C 92 % 1019,2 hPa 0,0 l/m 0 min 0 min 0 W/m 0,0 km/h (0 Bft) 95,74 %
25.11.2020 22:04 7,0 C 6,1 C 5,6 C 92 % 1019,2 hPa 0,0 l/m 0 min 0 min 0 W/m 3,2 km/h (1 Bft) 95,74 %
25.11.2020 22:06 7,0 C 6,1 C 5,6 C 92 % 1019,3 hPa 0,0 l/m 0 min 0 min 0 W/m 6,4 km/h (2 Bft) 95,74 %
25.11.2020 22:08 6,9 C 6,1 C 5,6 C 92 % 1019,4 hPa 0,0 l/m 0 min 0 min 0 W/m 3,2 km/h (1 Bft) 95,74 %
25.11.2020 22:10 6,9 C 6,1 C 5,6 C 92 % 1019,3 hPa 0,0 l/m 0 min 0 min 0 W/m 0,0 km/h (0 Bft) 93,62 %
25.11.2020 22:12 6,9 C 6,1 C 5,6 C 92 % 1019,4 hPa 0,0 l/m 0 min 0 min 0 W/m 0,0 km/h (0 Bft) 95,65 %
25.11.2020 22:14 6,9 C 6,1 C 5,6 C 92 % 1019,4 hPa 0,0 l/m 0 min 0 min 0 W/m 3,2 km/h (1 Bft) 97,87 %
25.11.2020 22:16 6,9 C 6,1 C 5,6 C 91 % 1019,4 hPa 0,0 l/m 0 min 0 min 0 W/m 6,4 km/h (2 Bft) 100,00 %
25.11.2020 22:18 6,9 C 6,1 C 5,6 C 91 % 1019,4 hPa 0,0 l/m 0 min 0 min 0 W/m 6,4 km/h (2 Bft) 97,87 %
25.11.2020 22:20 6,9 C 6,1 C 5,6 C 91 % 1019,4 hPa 0,0 l/m 0 min 0 min 0 W/m 6,4 km/h (2 Bft) 100,00 %
25.11.2020 22:22 6,9 C 6,1 C 5,6 C 91 % 1019,4 hPa 0,0 l/m 0 min 0 min 0 W/m 0,0 km/h (0 Bft) 100,00 %
25.11.2020 22:24 6,9 C 6,1 C 5,6 C 91 % 1019,4 hPa 0,0 l/m 0 min 0 min 0 W/m 0,0 km/h (0 Bft) 100,00 %
25.11.2020 22:26 6,9 C 6,1 C 5,0 C 91 % 1019,5 hPa 0,0 l/m 0 min 0 min 0 W/m 3,2 km/h (1 Bft) 100,00 %
25.11.2020 22:28 6,9 C 6,1 C 5,0 C 91 % 1019,5 hPa 0,0 l/m 0 min 0 min 0 W/m 3,2 km/h (1 Bft) 97,87 %
25.11.2020 22:30 6,8 C 6,1 C 5,6 C 91 % 1019,4 hPa 0,0 l/m 0 min 0 min 0 W/m 3,2 km/h (1 Bft) 100,00 %
25.11.2020 22:32 6,8 C 6,1 C 5,6 C 92 % 1019,5 hPa 0,0 l/m 0 min 0 min 0 W/m 3,2 km/h (1 Bft) 100,00 %
25.11.2020 22:34 6,8 C 6,1 C 5,0 C 92 % 1019,5 hPa 0,0 l/m 0 min 0 min 0 W/m 3,2 km/h (1 Bft) 97,83 %
25.11.2020 22:36 6,8 C 6,1 C 5,0 C 92 % 1019,5 hPa 0,0 l/m 0 min 0 min 0 W/m 0,0 km/h (0 Bft) 100,00 %
25.11.2020 22:38 6,8 C 6,1 C 5,0 C 92 % 1019,5 hPa 0,0 l/m 0 min 0 min 0 W/m 0,0 km/h (0 Bft) 97,87 %
25.11.2020 22:40 6,8 C 6,1 C 5,0 C 92 % 1019,5 hPa 0,0 l/m 0 min 0 min 0 W/m 3,2 km/h (1 Bft) 100,00 %
25.11.2020 22:42 6,8 C 6,1 C 5,0 C 92 % 1019,5 hPa 0,0 l/m 0 min 0 min 0 W/m 3,2 km/h (1 Bft) 100,00 %
25.11.2020 22:44 6,7 C 6,1 C 5,0 C 92 % 1019,5 hPa 0,0 l/m 0 min 0 min 0 W/m 3,2 km/h (1 Bft) 100,00 %
25.11.2020 22:46 6,7 C 6,1 C 5,0 C 92 % 1019,5 hPa 0,0 l/m 0 min 0 min 0 W/m 3,2 km/h (1 Bft) 100,00 %
25.11.2020 22:48 6,7 C 5,6 C 5,0 C 92 % 1019,5 hPa 0,0 l/m 0 min 0 min 0 W/m 0,0 km/h (0 Bft) 100,00 %
25.11.2020 22:50 6,6 C 5,6 C 5,0 C 92 % 1019,5 hPa 0,0 l/m 0 min 0 min 0 W/m 0,0 km/h (0 Bft) 100,00 %
25.11.2020 22:52 6,6 C 5,6 C 5,0 C 92 % 1019,5 hPa 0,0 l/m 0 min 0 min 0 W/m 0,0 km/h (0 Bft) 100,00 %
25.11.2020 22:54 6,6 C 5,6 C 5,0 C 92 % 1019,6 hPa 0,0 l/m 0 min 0 min 0 W/m 0,0 km/h (0 Bft) 100,00 %
25.11.2020 22:56 6,6 C 5,6 C 5,0 C 92 % 1019,6 hPa 0,0 l/m 0 min 0 min 0 W/m 0,0 km/h (0 Bft) 97,87 %
25.11.2020 22:58 6,6 C 5,6 C 5,0 C 92 % 1019,6 hPa 0,0 l/m 0 min 0 min 0 W/m 3,2 km/h (1 Bft) 100,00 %
25.11.2020 23:00 6,6 C 6,1 C 5,0 C 92 % 1019,6 hPa 0,0 l/m 0 min 0 min 0 W/m 3,2 km/h (1 Bft) 97,87 %
25.11.2020 23:02 6,5 C 5,6 C 5,0 C 92 % 1019,6 hPa 0,0 l/m 0 min 0 min 0 W/m 3,2 km/h (1 Bft) 100,00 %
25.11.2020 23:04 6,5 C 6,1 C 5,0 C 92 % 1019,6 hPa 0,0 l/m 0 min 0 min 0 W/m 0,0 km/h (0 Bft) 100,00 %
25.11.2020 23:06 6,5 C 6,1 C 5,0 C 92 % 1019,6 hPa 0,0 l/m 0 min 0 min 0 W/m 0,0 km/h (0 Bft) 100,00 %
25.11.2020 23:08 6,5 C 6,1 C 5,0 C 92 % 1019,6 hPa 0,0 l/m 0 min 0 min 0 W/m 0,0 km/h (0 Bft) 100,00 %
25.11.2020 23:10 6,5 C 6,1 C 5,0 C 92 % 1019,6 hPa 0,0 l/m 0 min 0 min 0 W/m 0,0 km/h (0 Bft) 95,65 %
25.11.2020 23:12 6,5 C 6,1 C 5,0 C 92 % 1019,6 hPa 0,0 l/m 0 min 0 min 0 W/m 0,0 km/h (0 Bft) 100,00 %
25.11.2020 23:14 6,5 C 6,1 C 5,0 C 92 % 1019,7 hPa 0,0 l/m 0 min 0 min 0 W/m 0,0 km/h (0 Bft) 97,87 %
25.11.2020 23:16 6,5 C 6,1 C 5,6 C 92 % 1019,7 hPa 0,0 l/m 0 min 0 min 0 W/m 6,4 km/h (2 Bft) 100,00 %
25.11.2020 23:18 6,5 C 6,1 C 5,6 C 92 % 1019,8 hPa 0,0 l/m 0 min 0 min 0 W/m 0,0 km/h (0 Bft) 97,87 %
25.11.2020 23:20 6,5 C 6,1 C 5,6 C 93 % 1019,8 hPa 0,0 l/m 0 min 0 min 0 W/m 0,0 km/h (0 Bft) 100,00 %
25.11.2020 23:22 6,5 C 6,1 C 5,6 C 93 % 1019,7 hPa 0,0 l/m 0 min 0 min 0 W/m 0,0 km/h (0 Bft) 100,00 %
25.11.2020 23:24 6,5 C 6,1 C 5,6 C 93 % 1019,8 hPa 0,0 l/m 0 min 0 min 0 W/m 0,0 km/h (0 Bft) 100,00 %
25.11.2020 23:26 6,5 C 6,1 C 5,6 C 93 % 1019,8 hPa 0,0 l/m 0 min 0 min 0 W/m 0,0 km/h (0 Bft) 100,00 %
25.11.2020 23:28 6,5 C 6,1 C 5,6 C 93 % 1019,9 hPa 0,0 l/m 0 min 0 min 0 W/m 0,0 km/h (0 Bft) 95,74 %
25.11.2020 23:30 6,5 C 6,1 C 5,6 C 93 % 1019,9 hPa 0,0 l/m 0 min 0 min 0 W/m 0,0 km/h (0 Bft) 97,87 %
25.11.2020 23:32 6,6 C 6,1 C 5,6 C 93 % 1019,9 hPa 0,0 l/m 0 min 0 min 0 W/m 3,2 km/h (1 Bft) 97,83 %
25.11.2020 23:34 6,6 C 6,1 C 5,6 C 93 % 1019,9 hPa 0,0 l/m 0 min 0 min 0 W/m 0,0 km/h (0 Bft) 100,00 %
25.11.2020 23:36 6,6 C 6,1 C 5,6 C 93 % 1019,9 hPa 0,0 l/m 0 min 0 min 0 W/m 0,0 km/h (0 Bft) 97,87 %
25.11.2020 23:38 6,6 C 6,1 C 5,6 C 93 % 1020,0 hPa 0,0 l/m 0 min 0 min 0 W/m 0,0 km/h (0 Bft) 97,87 %
25.11.2020 23:40 6,6 C 6,1 C 5,6 C 93 % 1020,0 hPa 0,0 l/m 0 min 0 min 0 W/m 0,0 km/h (0 Bft) 97,87 %
25.11.2020 23:42 6,6 C 6,1 C 5,6 C 93 % 1020,0 hPa 0,0 l/m 0 min 0 min 0 W/m 0,0 km/h (0 Bft) 95,74 %
25.11.2020 23:44 6,6 C 6,1 C 5,6 C 93 % 1020,0 hPa 0,0 l/m 0 min 0 min 0 W/m 3,2 km/h (1 Bft) 95,65 %
25.11.2020 23:46 6,6 C 6,1 C 5,6 C 93 % 1020,0 hPa 0,0 l/m 0 min 0 min 0 W/m 3,2 km/h (1 Bft) 97,87 %
25.11.2020 23:48 6,6 C 6,1 C 5,6 C 93 % 1020,0 hPa 0,0 l/m 0 min 0 min 0 W/m 0,0 km/h (0 Bft) 97,87 %
25.11.2020 23:50 6,6 C 6,1 C 5,6 C 93 % 1020,0 hPa 0,0 l/m 0 min 0 min 0 W/m 3,2 km/h (1 Bft) 97,87 %
25.11.2020 23:52 6,6 C 6,1 C 5,6 C 93 % 1020,0 hPa 0,0 l/m 0 min 0 min 0 W/m 3,2 km/h (1 Bft) 97,87 %
25.11.2020 23:54 6,6 C 6,1 C 5,6 C 93 % 1020,1 hPa 0,0 l/m 0 min 0 min 0 W/m 3,2 km/h (1 Bft) 97,87 %
25.11.2020 23:56 6,7 C 6,1 C 5,6 C 93 % 1020,1 hPa 0,0 l/m 0 min 0 min 0 W/m 0,0 km/h (0 Bft) 97,83 %
25.11.2020 23:58 6,6 C 6,1 C 5,6 C 93 % 1020,2 hPa 0,0 l/m 0 min 0 min 0 W/m 0,0 km/h (0 Bft) 97,87 %
_ Min-Zeit 05:28 04:18 04:20 14:08 06:36 - - - - 06:16 00:02
Minimum _ 4,5 C 3,9 C 3,4 C 83 % 1016,4 hPa - - - - 0,0 km/h (0 Bft) 12,50 %
_ Max-Zeit 14:20 13:48 14:04 06:30 23:58 00:00 12:08 00:00 12:30 09:18 00:00
Maximum _ 10,1 C 13,3 C 13,9 C 95 % 1020,2 hPa 0,0 l/m 4 min 0 min 327 W/m 29,0 km/h
S-SO (5 Bft)
100,00 %
Durchschnitt _ 6,5 C 6,4 C 5,7 C 91 % 1017,9 hPa #0,0 l/m #3:24 h #0 min. 114 W/m 10,4 km/h (2 Bft) 97,14 %
© 2020 W. Hausmann